| time (UTC) | temp F | wind direction | speed knots | gust knots | rain 1hr in | rain 24hr in | rain mn in | humidity % | barometer mb |
| 20260508195306 | 59 | 257 | 7.0 | 15.6 | 0.00 | 0.00 | 0.00 | 32 | 1005.1 |
| 20260508195204 | 58 | 268 | 6.1 | 15.6 | 0.00 | 0.00 | 0.00 | 32 | 1005.2 |
| 20260508195105 | 58 | 267 | 7.8 | 15.6 | 0.00 | 0.00 | 0.00 | 32 | 1005.5 |
| 20260508195003 | 58 | 267 | 7.8 | 15.6 | 0.00 | 0.00 | 0.00 | 33 | 1005.3 |
| 20260508194904 | 58 | 258 | 8.7 | 14.8 | 0.00 | 0.00 | 0.00 | 33 | 1005.4 |
| 20260508194808 | 59 | 258 | 5.2 | 13.0 | 0.00 | 0.00 | 0.00 | 34 | 1005.3 |
| 20260508194703 | 59 | 253 | 7.0 | 13.0 | 0.00 | 0.00 | 0.00 | 34 | 1005.3 |
| 20260508194603 | 58 | 247 | 7.8 | 12.2 | 0.00 | 0.00 | 0.00 | 34 | 1005.4 |
| 20260508194503 | 58 | 241 | 7.0 | 12.2 | 0.00 | 0.00 | 0.00 | 34 | 1005.4 |
| 20260508194403 | 58 | 240 | 7.0 | 12.2 | 0.00 | 0.00 | 0.00 | 34 | 1005.4 |
| 20260508194303 | 58 | 244 | 6.1 | 12.2 | 0.00 | 0.00 | 0.00 | 35 | 1005.3 |
| 20260508194205 | 58 | 237 | 6.1 | 11.3 | 0.00 | 0.00 | 0.00 | 35 | 1005.3 |
| 20260508194116 | 59 | 249 | 6.1 | 11.3 | 0.00 | 0.00 | 0.00 | 35 | 1005.4 |
| 20260508194103 | 59 | 251 | 6.1 | 11.3 | 0.00 | 0.00 | 0.00 | 35 | 1005.4 |
| 20260508194005 | 59 | 254 | 2.6 | 11.3 | 0.00 | 0.00 | 0.00 | 35 | 1005.2 |
| 20260508193803 | 58 | 249 | 7.0 | 11.3 | 0.00 | 0.00 | 0.00 | 34 | 1005.3 |
| 20260508193703 | 58 | 252 | 7.0 | 13.0 | 0.00 | 0.00 | 0.00 | 34 | 1005.4 |
| 20260508193605 | 58 | 245 | 7.0 | 13.0 | 0.00 | 0.00 | 0.00 | 34 | 1005.3 |
| 20260508193503 | 59 | 244 | 7.0 | 13.0 | 0.00 | 0.00 | 0.00 | 33 | 1005.4 |
| 20260508193405 | 59 | 243 | 2.6 | 13.0 | 0.00 | 0.00 | 0.00 | 35 | 1005.3 |
| 20260508193203 | 58 | 247 | 7.0 | 13.0 | 0.00 | 0.00 | 0.00 | 34 | 1005.4 |
| 20260508193104 | 58 | 243 | 7.0 | 13.0 | 0.00 | 0.00 | 0.00 | 34 | 1005.4 |
| 20260508193004 | 58 | 242 | 3.5 | 11.3 | 0.00 | 0.00 | 0.00 | 36 | 1005.5 |
| 20260508192906 | 58 | 241 | 3.5 | 11.3 | 0.00 | 0.00 | 0.00 | 36 | 1005.2 |
| 20260508192804 | 58 | 246 | 7.0 | 11.3 | 0.00 | 0.00 | 0.00 | 35 | 1005.3 |
| 20260508192704 | 58 | 246 | 5.2 | 11.3 | 0.00 | 0.00 | 0.00 | 35 | 1005.2 |
| 20260508192607 | 58 | 251 | 3.5 | 13.0 | 0.00 | 0.00 | 0.00 | 36 | 1005.4 |
| 20260508192504 | 58 | 254 | 4.3 | 13.0 | 0.00 | 0.00 | 0.00 | 35 | 1005.2 |
| 20260508192407 | 58 | 257 | 7.8 | 13.0 | 0.00 | 0.00 | 0.00 | 35 | 1005.2 |
| 20260508192306 | 58 | 266 | 6.1 | 13.0 | 0.00 | 0.00 | 0.00 | 35 | 1005.1 |
| 20260508192205 | 58 | 275 | 6.1 | 13.0 | 0.00 | 0.00 | 0.00 | 34 | 1005.3 |
| 20260508192103 | 58 | 280 | 7.0 | 13.0 | 0.00 | 0.00 | 0.00 | 34 | 1005.4 |
| 20260508192005 | 58 | 282 | 6.1 | 12.2 | 0.00 | 0.00 | 0.00 | 34 | 1005.5 |
| 20260508191906 | 58 | 278 | 7.8 | 13.0 | 0.00 | 0.00 | 0.00 | 34 | 1005.4 |
| 20260508191803 | 58 | 259 | 7.8 | 14.8 | 0.00 | 0.00 | 0.00 | 34 | 1005.4 |
| 20260508191704 | 58 | 244 | 7.0 | 14.8 | 0.00 | 0.00 | 0.00 | 34 | 1005.3 |
| 20260508191616 | 58 | 243 | 7.0 | 14.8 | 0.00 | 0.00 | 0.00 | 34 | 1005.4 |
| 20260508191604 | 58 | 240 | 7.0 | 14.8 | 0.00 | 0.00 | 0.00 | 34 | 1005.4 |
| 20260508191507 | 58 | 238 | 6.1 | 14.8 | 0.00 | 0.00 | 0.00 | 35 | 1005.4 |
| 20260508191303 | 58 | 242 | 7.0 | 14.8 | 0.00 | 0.00 | 0.00 | 35 | 1005.3 |
| 20260508191204 | 58 | 237 | 5.2 | 13.9 | 0.00 | 0.00 | 0.00 | 36 | 1005.4 |
| 20260508191104 | 58 | 232 | 9.6 | 13.9 | 0.00 | 0.00 | 0.00 | 35 | 1005.2 |
| 20260508191005 | 58 | 238 | 7.8 | 13.9 | 0.00 | 0.00 | 0.00 | 35 | 1005.4 |
| 20260508190904 | 58 | 248 | 7.0 | 13.9 | 0.00 | 0.00 | 0.00 | 35 | 1005.2 |
| 20260508190804 | 59 | 250 | 7.0 | 13.9 | 0.00 | 0.00 | 0.00 | 35 | 1005.4 |
| 20260508190705 | 59 | 256 | 7.0 | 13.9 | 0.00 | 0.00 | 0.00 | 36 | 1005.4 |
| 20260508190604 | 59 | 260 | 7.0 | 15.6 | 0.00 | 0.00 | 0.00 | 35 | 1005.4 |
| 20260508190503 | 59 | 257 | 7.0 | 15.6 | 0.00 | 0.00 | 0.00 | 35 | 1005.5 |
| 20260508190405 | 58 | 252 | 8.7 | 15.6 | 0.00 | 0.00 | 0.00 | 35 | 1005.5 |
| 20260508190303 | 59 | 250 | 8.7 | 15.6 | 0.00 | 0.00 | 0.00 | 35 | 1005.3 |
| 20260508190204 | 59 | 250 | 9.6 | 15.6 | 0.00 | 0.00 | 0.00 | 36 | 1005.4 |
| 20260508190105 | 59 | 250 | 7.8 | 15.6 | 0.00 | 0.00 | 0.00 | 35 | 1005.3 |
| 20260508190004 | 59 | 246 | 5.2 | 13.0 | 0.00 | 0.00 | 0.00 | 36 | 1005.3 |
| 20260508185904 | 59 | 242 | 5.2 | 13.0 | 0.00 | 0.00 | 0.00 | 36 | 1005.2 |
| 20260508185804 | 58 | 241 | 7.8 | 13.0 | 0.00 | 0.00 | 0.00 | 36 | 1005.3 |
| 20260508185704 | 59 | 245 | 7.0 | 11.3 | 0.00 | 0.00 | 0.00 | 36 | 1005.2 |
| 20260508185606 | 59 | 246 | 5.2 | 11.3 | 0.00 | 0.00 | 0.00 | 37 | 1005.4 |
| 20260508185504 | 59 | 246 | 7.0 | 11.3 | 0.00 | 0.00 | 0.00 | 37 | 1005.3 |
| 20260508185415 | 59 | 244 | 7.0 | 11.3 | 0.00 | 0.00 | 0.00 | 37 | 1005.5 |
| 20260508185403 | 59 | 246 | 5.2 | 12.2 | 0.00 | 0.00 | 0.00 | 37 | 1005.4 |
| 20260508185306 | 59 | 253 | 5.2 | 12.2 | 0.00 | 0.00 | 0.00 | 37 | 1005.4 |
| 20260508185103 | 59 | 271 | 3.5 | 15.6 | 0.00 | 0.00 | 0.00 | 37 | 1005.6 |
| 20260508185003 | 59 | 265 | 5.2 | 17.4 | 0.00 | 0.00 | 0.00 | 37 | 1005.5 |
| 20260508184903 | 58 | 263 | 8.7 | 17.4 | 0.00 | 0.00 | 0.00 | 36 | 1005.5 |
| 20260508184804 | 59 | 258 | 3.5 | 17.4 | 0.00 | 0.00 | 0.00 | 36 | 1005.4 |
| 20260508184707 | 58 | 250 | 7.0 | 17.4 | 0.00 | 0.00 | 0.00 | 36 | 1005.5 |
| 20260508184604 | 58 | 237 | 9.6 | 17.4 | 0.00 | 0.00 | 0.00 | 36 | 1005.5 |
| 20260508184504 | 59 | 233 | 7.8 | 17.4 | 0.00 | 0.00 | 0.00 | 36 | 1005.5 |
| 20260508184403 | 59 | 238 | 6.1 | 17.4 | 0.00 | 0.00 | 0.00 | 36 | 1005.3 |
| 20260508184320 | 58 | 232 | 7.8 | 17.4 | 0.00 | 0.00 | 0.00 | 35 | 1005.5 |
| 20260508184303 | 58 | 231 | 7.8 | 17.4 | 0.00 | 0.00 | 0.00 | 35 | 1005.5 |
| 20260508184205 | 59 | 232 | 7.8 | 13.9 | 0.00 | 0.00 | 0.00 | 36 | 1005.7 |
| 20260508184015 | 59 | 245 | 7.0 | 13.0 | 0.00 | 0.00 | 0.00 | 36 | 1005.5 |
| 20260508184005 | 59 | 248 | 7.0 | 13.0 | 0.00 | 0.00 | 0.00 | 36 | 1005.5 |
| 20260508183903 | 58 | 245 | 7.8 | 13.0 | 0.00 | 0.00 | 0.00 | 36 | 1005.5 |
| 20260508183704 | 58 | 260 | 7.8 | 13.0 | 0.00 | 0.00 | 0.00 | 37 | 1005.7 |
| 20260508183611 | 59 | 256 | 5.2 | 11.3 | 0.00 | 0.00 | 0.00 | 37 | 1005.6 |
| 20260508183504 | 59 | 257 | 6.1 | 11.3 | 0.00 | 0.00 | 0.00 | 37 | 1005.7 |
| 20260508183404 | 59 | 261 | 7.0 | 12.2 | 0.00 | 0.00 | 0.00 | 38 | 1005.5 |
| 20260508183204 | 58 | 260 | 5.2 | 12.2 | 0.00 | 0.00 | 0.00 | 38 | 1005.5 |
| 20260508183104 | 58 | 270 | 5.2 | 14.8 | 0.00 | 0.00 | 0.00 | 37 | 1005.3 |
| 20260508183005 | 58 | 277 | 7.0 | 14.8 | 0.00 | 0.00 | 0.00 | 37 | 1005.6 |
| 20260508182904 | 59 | 280 | 7.0 | 14.8 | 0.00 | 0.00 | 0.00 | 38 | 1005.6 |
| 20260508182804 | 59 | 276 | 3.5 | 14.8 | 0.00 | 0.00 | 0.00 | 39 | 1005.5 |
| 20260508182704 | 58 | 277 | 7.0 | 14.8 | 0.00 | 0.00 | 0.00 | 39 | 1005.9 |
| 20260508182606 | 58 | 270 | 7.8 | 14.8 | 0.00 | 0.00 | 0.00 | 38 | 1005.9 |
| 20260508182504 | 58 | 262 | 8.7 | 14.8 | 0.00 | 0.00 | 0.00 | 38 | 1005.7 |
| 20260508182403 | 59 | 260 | 7.8 | 14.8 | 0.00 | 0.00 | 0.00 | 38 | 1005.7 |
| 20260508182306 | 59 | 254 | 3.5 | 14.8 | 0.00 | 0.00 | 0.00 | 38 | 1005.8 |
| 20260508182205 | 58 | 256 | 7.8 | 14.8 | 0.00 | 0.00 | 0.00 | 39 | 1005.5 |
| 20260508182104 | 58 | 252 | 12.2 | 14.8 | 0.00 | 0.00 | 0.00 | 38 | 1005.7 |
| 20260508182005 | 59 | 247 | 5.2 | 14.8 | 0.00 | 0.00 | 0.00 | 39 | 1005.7 |
| 20260508181903 | 58 | 245 | 7.8 | 18.2 | 0.00 | 0.00 | 0.00 | 39 | 1005.6 |
| 20260508181803 | 59 | 250 | 7.0 | 18.2 | 0.00 | 0.00 | 0.00 | 38 | 1005.6 |
| 20260508181704 | 58 | 252 | 3.5 | 18.2 | 0.00 | 0.00 | 0.00 | 39 | 1005.5 |
| 20260508181604 | 58 | 252 | 4.3 | 18.2 | 0.00 | 0.00 | 0.00 | 38 | 1005.7 |
| 20260508181505 | 58 | 254 | 7.0 | 18.2 | 0.00 | 0.00 | 0.00 | 38 | 1005.6 |
| 20260508181403 | 58 | 254 | 8.7 | 18.2 | 0.00 | 0.00 | 0.00 | 39 | 1005.9 |
| 20260508181216 | 58 | 245 | 9.6 | 18.2 | 0.00 | 0.00 | 0.00 | 38 | 1005.6 |
| 20260508181205 | 58 | 243 | 9.6 | 18.2 | 0.00 | 0.00 | 0.00 | 38 | 1005.6 |
| 20260508181105 | 58 | 247 | 8.7 | 18.2 | 0.00 | 0.00 | 0.00 | 38 | 1005.9 |
| 20260508180803 | 58 | 260 | 8.7 | 18.2 | 0.00 | 0.00 | 0.00 | 38 | 1005.7 |
| 20260508180704 | 59 | 257 | 8.7 | 18.2 | 0.00 | 0.00 | 0.00 | 38 | 1005.9 |
| 20260508180604 | 58 | 250 | 7.8 | 13.0 | 0.00 | 0.00 | 0.00 | 37 | 1005.5 |
| 20260508180409 | 58 | 216 | 8.7 | 18.2 | 0.00 | 0.00 | 0.00 | 36 | 1006.0 |
| 20260508180304 | 59 | 208 | 7.0 | 18.2 | 0.00 | 0.00 | 0.00 | 37 | 1005.8 |
| 20260508180206 | 59 | 213 | 5.2 | 18.2 | 0.00 | 0.00 | 0.00 | 37 | 1005.7 |
| 20260508180115 | 58 | 222 | 6.1 | 18.2 | 0.00 | 0.00 | 0.00 | 37 | 1005.9 |
| 20260508180103 | 58 | 226 | 6.1 | 18.2 | 0.00 | 0.00 | 0.00 | 37 | 1005.9 |
| 20260508180004 | 58 | 249 | 9.6 | 18.2 | 0.00 | 0.00 | 0.00 | 37 | 1005.6 |
| 20260508175804 | 58 | 270 | 10.4 | 15.6 | 0.00 | 0.00 | 0.00 | 38 | 1005.9 |
| 20260508175705 | 58 | 269 | 7.0 | 15.6 | 0.00 | 0.00 | 0.00 | 39 | 1005.8 |
| 20260508175605 | 58 | 262 | 9.6 | 15.6 | 0.00 | 0.00 | 0.00 | 39 | 1005.9 |
| 20260508175505 | 58 | 257 | 9.6 | 15.6 | 0.00 | 0.00 | 0.00 | 39 | 1005.9 |
| 20260508175405 | 58 | 258 | 6.1 | 15.6 | 0.00 | 0.00 | 0.00 | 38 | 1005.8 |
| 20260508175306 | 58 | 257 | 7.0 | 15.6 | 0.00 | 0.00 | 0.00 | 38 | 1005.9 |
| 20260508175203 | 58 | 262 | 9.6 | 15.6 | 0.00 | 0.00 | 0.00 | 38 | 1005.9 |
| 20260508175103 | 58 | 262 | 7.8 | 14.8 | 0.00 | 0.00 | 0.00 | 38 | 1006.1 |
| 20260508175003 | 58 | 251 | 5.2 | 18.2 | 0.00 | 0.00 | 0.00 | 39 | 1005.8 |
| 20260508174903 | 58 | 230 | 6.1 | 18.2 | 0.00 | 0.00 | 0.00 | 39 | 1005.9 |
| 20260508174809 | 58 | 219 | 8.7 | 18.2 | 0.00 | 0.00 | 0.00 | 39 | 1005.9 |
| 20260508174703 | 58 | 197 | 7.8 | 18.2 | 0.00 | 0.00 | 0.00 | 38 | 1005.8 |
| 20260508174604 | 57 | 181 | 8.7 | 18.2 | 0.00 | 0.00 | 0.00 | 38 | 1005.7 |
| 20260508174505 | 58 | 173 | 9.6 | 18.2 | 0.00 | 0.00 | 0.00 | 38 | 1005.8 |
| 20260508174404 | 57 | 186 | 11.3 | 15.6 | 0.00 | 0.00 | 0.00 | 38 | 1006.1 |
| 20260508174304 | 58 | 203 | 7.0 | 15.6 | 0.00 | 0.00 | 0.00 | 38 | 1005.8 |
| 20260508174204 | 58 | 220 | 7.0 | 15.6 | 0.00 | 0.00 | 0.00 | 38 | 1005.9 |
| 20260508174104 | 58 | 231 | 7.8 | 15.6 | 0.00 | 0.00 | 0.00 | 38 | 1005.9 |
| 20260508174004 | 58 | 237 | 7.0 | 15.6 | 0.00 | 0.00 | 0.00 | 38 | 1006.1 |
| 20260508173907 | 57 | 236 | 9.6 | 15.6 | 0.00 | 0.00 | 0.00 | 38 | 1005.8 |
| 20260508173805 | 57 | 241 | 9.6 | 15.6 | 0.00 | 0.00 | 0.00 | 38 | 1005.9 |
| 20260508173703 | 58 | 247 | 9.6 | 14.8 | 0.00 | 0.00 | 0.00 | 38 | 1006.1 |
| 20260508173604 | 58 | 263 | 6.1 | 14.8 | 0.00 | 0.00 | 0.00 | 38 | 1005.9 |
| 20260508173504 | 58 | 260 | 7.8 | 14.8 | 0.00 | 0.00 | 0.00 | 39 | 1005.8 |
| 20260508173404 | 58 | 258 | 7.8 | 14.8 | 0.00 | 0.00 | 0.00 | 40 | 1005.9 |
| 20260508173305 | 58 | 259 | 9.6 | 14.8 | 0.00 | 0.00 | 0.00 | 38 | 1005.9 |
| 20260508173203 | 58 | 255 | 4.3 | 14.8 | 0.00 | 0.00 | 0.00 | 39 | 1006.0 |
| 20260508173005 | 58 | 246 | 6.1 | 17.4 | 0.00 | 0.00 | 0.00 | 40 | 1006.0 |
| 20260508172904 | 57 | 250 | 8.7 | 17.4 | 0.00 | 0.00 | 0.00 | 40 | 1006.1 |
| 20260508172803 | 58 | 256 | 6.1 | 17.4 | 0.00 | 0.00 | 0.00 | 40 | 1005.9 |
| 20260508172707 | 57 | 258 | 4.3 | 17.4 | 0.00 | 0.00 | 0.00 | 40 | 1005.9 |
| 20260508172604 | 57 | 263 | 11.3 | 17.4 | 0.00 | 0.00 | 0.00 | 39 | 1005.8 |
| 20260508172515 | 58 | 270 | 7.0 | 13.0 | 0.00 | 0.00 | 0.00 | 40 | 1006.0 |
| 20260508172403 | 58 | 257 | 5.2 | 13.9 | 0.00 | 0.00 | 0.00 | 40 | 1005.6 |
| 20260508172322 | 58 | 249 | 6.1 | 13.9 | 0.00 | 0.00 | 0.00 | 40 | 1005.9 |
| 20260508172203 | 58 | 237 | 5.2 | 13.9 | 0.00 | 0.00 | 0.00 | 40 | 1006.0 |
| 20260508172003 | 58 | 217 | 7.0 | 13.9 | 0.00 | 0.00 | 0.00 | 40 | 1005.9 |
| 20260508171903 | 57 | 221 | 7.8 | 13.9 | 0.00 | 0.00 | 0.00 | 40 | 1005.9 |
| 20260508171815 | 57 | 221 | 7.0 | 13.9 | 0.00 | 0.00 | 0.00 | 40 | 1005.9 |
| 20260508171803 | 57 | 223 | 8.7 | 13.9 | 0.00 | 0.00 | 0.00 | 40 | 1005.9 |
| 20260508171703 | 58 | 222 | 7.0 | 13.9 | 0.00 | 0.00 | 0.00 | 40 | 1006.0 |
| 20260508171506 | 57 | 244 | 7.8 | 17.4 | 0.00 | 0.00 | 0.00 | 40 | 1005.8 |
| 20260508171404 | 57 | 245 | 7.0 | 17.4 | 0.00 | 0.00 | 0.00 | 41 | 1006.1 |
| 20260508171308 | 57 | 247 | 8.7 | 17.4 | 0.00 | 0.00 | 0.00 | 41 | 1006.1 |
| 20260508171203 | 56 | 249 | 9.6 | 17.4 | 0.00 | 0.00 | 0.00 | 40 | 1006.1 |
| 20260508171104 | 57 | 254 | 9.6 | 17.4 | 0.00 | 0.00 | 0.00 | 41 | 1006.0 |
| 20260508171005 | 57 | 253 | 7.0 | 14.8 | 0.00 | 0.00 | 0.00 | 41 | 1006.4 |
| 20260508170903 | 57 | 244 | 7.8 | 15.6 | 0.00 | 0.00 | 0.00 | 41 | 1006.1 |
| 20260508170804 | 57 | 247 | 5.2 | 15.6 | 0.00 | 0.00 | 0.00 | 41 | 1006.2 |
| 20260508170703 | 57 | 247 | 7.0 | 15.6 | 0.00 | 0.00 | 0.00 | 41 | 1006.1 |
| 20260508170604 | 56 | 241 | 9.6 | 15.6 | 0.00 | 0.00 | 0.00 | 42 | 1006.4 |
| 20260508170403 | 56 | 251 | 9.6 | 15.6 | 0.00 | 0.00 | 0.00 | 42 | 1006.2 |
| 20260508170306 | 57 | 247 | 7.8 | 15.6 | 0.00 | 0.00 | 0.00 | 42 | 1006.2 |
| 20260508170203 | 57 | 258 | 7.0 | 18.2 | 0.00 | 0.00 | 0.00 | 41 | 1006.1 |
| 20260508170004 | 57 | 254 | 7.8 | 18.2 | 0.00 | 0.00 | 0.00 | 41 | 1005.9 |
| 20260508165903 | 58 | 233 | 4.3 | 20.0 | 0.00 | 0.00 | 0.00 | 41 | 1006.1 |
| 20260508165805 | 57 | 223 | 7.8 | 20.0 | 0.00 | 0.00 | 0.00 | 42 | 1006.3 |
| 20260508165703 | 57 | 208 | 7.0 | 20.0 | 0.00 | 0.00 | 0.00 | 42 | 1006.3 |
| 20260508165603 | 57 | 211 | 7.0 | 20.0 | 0.00 | 0.00 | 0.00 | 42 | 1006.3 |
| 20260508165504 | 57 | 208 | 10.4 | 20.0 | 0.00 | 0.00 | 0.00 | 42 | 1006.2 |
| 20260508165404 | 58 | 218 | 7.0 | 15.6 | 0.00 | 0.00 | 0.00 | 42 | 1006.4 |
| 20260508165315 | 57 | 217 | 8.7 | 15.6 | 0.00 | 0.00 | 0.00 | 42 | 1006.3 |
| 20260508165306 | 57 | 221 | 8.7 | 15.6 | 0.00 | 0.00 | 0.00 | 42 | 1006.3 |
| 20260508165204 | 58 | 224 | 3.5 | 15.6 | 0.00 | 0.00 | 0.00 | 42 | 1006.3 |
| 20260508165004 | 57 | 217 | 7.0 | 15.6 | 0.00 | 0.00 | 0.00 | 42 | 1006.1 |
| 20260508164906 | 56 | 221 | 10.4 | 15.6 | 0.00 | 0.00 | 0.00 | 42 | 1006.5 |
| 20260508164804 | 57 | 232 | 6.1 | 15.6 | 0.00 | 0.00 | 0.00 | 42 | 1006.5 |
| 20260508164705 | 57 | 232 | 6.1 | 15.6 | 0.00 | 0.00 | 0.00 | 42 | 1006.3 |
| 20260508164615 | 56 | 231 | 7.8 | 15.6 | 0.00 | 0.00 | 0.00 | 42 | 1006.4 |
| 20260508164603 | 56 | 230 | 7.0 | 15.6 | 0.00 | 0.00 | 0.00 | 43 | 1006.2 |
| 20260508164504 | 56 | 234 | 7.8 | 15.6 | 0.00 | 0.00 | 0.00 | 43 | 1006.3 |
| 20260508164304 | 56 | 228 | 6.1 | 15.6 | 0.00 | 0.00 | 0.00 | 43 | 1006.4 |
| 20260508164204 | 56 | 229 | 8.7 | 15.6 | 0.00 | 0.00 | 0.00 | 43 | 1006.7 |
| 20260508164104 | 56 | 229 | 9.6 | 15.6 | 0.00 | 0.00 | 0.00 | 42 | 1006.5 |
| 20260508164016 | 56 | 235 | 6.1 | 13.9 | 0.00 | 0.00 | 0.00 | 44 | 1006.4 |
| 20260508164003 | 56 | 238 | 6.1 | 13.9 | 0.00 | 0.00 | 0.00 | 44 | 1006.4 |
| 20260508163903 | 56 | 250 | 7.0 | 13.9 | 0.00 | 0.00 | 0.00 | 43 | 1006.6 |
| 20260508163704 | 56 | 229 | 4.3 | 13.9 | 0.00 | 0.00 | 0.00 | 44 | 1006.5 |
| 20260508163604 | 56 | 223 | 7.0 | 13.9 | 0.00 | 0.00 | 0.00 | 44 | 1006.5 |
| 20260508163506 | 56 | 231 | 8.7 | 20.0 | 0.00 | 0.00 | 0.00 | 44 | 1006.7 |
| 20260508163418 | 56 | 221 | 8.7 | 21.7 | 0.00 | 0.00 | 0.00 | 44 | 1006.6 |
| 20260508163405 | 56 | 219 | 9.6 | 21.7 | 0.00 | 0.00 | 0.00 | 44 | 1006.7 |
| 20260508163303 | 56 | 230 | 7.0 | 21.7 | 0.00 | 0.00 | 0.00 | 44 | 1006.6 |
| 20260508163104 | 56 | 243 | 7.8 | 21.7 | 0.00 | 0.00 | 0.00 | 44 | 1006.7 |
| 20260508163018 | 56 | 245 | 13.0 | 21.7 | 0.00 | 0.00 | 0.00 | 43 | 1006.7 |
| 20260508163003 | 56 | 244 | 10.4 | 21.7 | 0.00 | 0.00 | 0.00 | 43 | 1006.8 |
| 20260508162904 | 56 | 251 | 10.4 | 21.7 | 0.00 | 0.00 | 0.00 | 43 | 1007.0 |
| 20260508162814 | 56 | 249 | 8.7 | 15.6 | 0.00 | 0.00 | 0.00 | 43 | 1006.7 |
| 20260508162704 | 56 | 245 | 7.0 | 15.6 | 0.00 | 0.00 | 0.00 | 44 | 1007.0 |
| 20260508162617 | 56 | 238 | 8.7 | 15.6 | 0.00 | 0.00 | 0.00 | 44 | 1006.7 |
| 20260508162307 | 56 | 242 | 10.4 | 15.6 | 0.00 | 0.00 | 0.00 | 46 | 1006.9 |
| 20260508162205 | 56 | 244 | 9.6 | 13.9 | 0.00 | 0.00 | 0.00 | 46 | 1006.7 |
| 20260508162106 | 56 | 246 | 7.8 | 13.9 | 0.00 | 0.00 | 0.00 | 46 | 1006.7 |
| 20260508162003 | 56 | 244 | 8.7 | 13.9 | 0.00 | 0.00 | 0.00 | 46 | 1006.8 |
| 20260508161903 | 56 | 247 | 7.0 | 13.9 | 0.00 | 0.00 | 0.00 | 46 | 1006.7 |
| 20260508161803 | 56 | 243 | 7.0 | 12.2 | 0.00 | 0.00 | 0.00 | 46 | 1006.7 |
| 20260508161703 | 56 | 239 | 7.0 | 12.2 | 0.00 | 0.00 | 0.00 | 46 | 1007.0 |
| 20260508161605 | 56 | 243 | 5.2 | 15.6 | 0.00 | 0.00 | 0.00 | 46 | 1006.8 |
| 20260508161513 | 56 | 244 | 6.1 | 15.6 | 0.00 | 0.00 | 0.00 | 46 | 1006.8 |
| 20260508161406 | 56 | 242 | 4.3 | 15.6 | 0.00 | 0.00 | 0.00 | 46 | 1007.0 |
| 20260508161303 | 56 | 244 | 6.1 | 15.6 | 0.00 | 0.00 | 0.00 | 46 | 1007.2 |
| 20260508161203 | 56 | 246 | 4.3 | 15.6 | 0.00 | 0.00 | 0.00 | 46 | 1006.9 |
| 20260508161104 | 55 | 244 | 9.6 | 15.6 | 0.00 | 0.00 | 0.00 | 46 | 1006.9 |
| 20260508161003 | 55 | 241 | 9.6 | 15.6 | 0.00 | 0.00 | 0.00 | 46 | 1006.8 |
| 20260508160918 | 55 | 233 | 9.6 | 14.8 | 0.00 | 0.00 | 0.00 | 46 | 1007.0 |
| 20260508160903 | 55 | 231 | 9.6 | 14.8 | 0.00 | 0.00 | 0.00 | 46 | 1007.0 |
| 20260508160808 | 55 | 228 | 8.7 | 15.6 | 0.00 | 0.00 | 0.00 | 46 | 1007.0 |
| 20260508160503 | 55 | 232 | 7.0 | 17.4 | 0.00 | 0.00 | 0.00 | 47 | 1007.3 |
| 20260508160416 | 55 | 240 | 7.8 | 17.4 | 0.00 | 0.00 | 0.00 | 46 | 1007.1 |
| 20260508160403 | 55 | 241 | 7.8 | 17.4 | 0.00 | 0.00 | 0.00 | 46 | 1007.1 |
| 20260508160320 | 54 | 244 | 7.8 | 17.4 | 0.00 | 0.00 | 0.00 | 46 | 1007.1 |
| 20260508160303 | 54 | 246 | 7.8 | 17.4 | 0.00 | 0.00 | 0.00 | 46 | 1007.1 |
| 20260508160004 | 55 | 228 | 7.8 | 13.0 | 0.00 | 0.00 | 0.00 | 46 | 1007.1 |
| 20260508155904 | 55 | 229 | 5.2 | 13.0 | 0.00 | 0.00 | 0.00 | 47 | 1007.0 |
| 20260508155804 | 55 | 232 | 8.7 | 13.0 | 0.00 | 0.00 | 0.00 | 47 | 1007.3 |
| 20260508155716 | 55 | 237 | 8.7 | 15.6 | 0.00 | 0.00 | 0.00 | 47 | 1007.4 |
| 20260508155706 | 55 | 236 | 8.7 | 15.6 | 0.00 | 0.00 | 0.00 | 47 | 1007.4 |
| 20260508155603 | 55 | 233 | 7.8 | 15.6 | 0.00 | 0.00 | 0.00 | 47 | 1007.1 |
| 20260508155513 | 55 | 234 | 5.2 | 15.6 | 0.00 | 0.00 | 0.00 | 47 | 1007.1 |
| 20260508155407 | 54 | 225 | 7.0 | 17.4 | 0.00 | 0.00 | 0.00 | 47 | 1007.3 |
| 20260508155205 | 54 | 228 | 9.6 | 17.4 | 0.00 | 0.00 | 0.00 | 47 | 1007.3 |
| 20260508155104 | 55 | 227 | 7.0 | 17.4 | 0.00 | 0.00 | 0.00 | 46 | 1007.4 |
| 20260508155004 | 54 | 235 | 9.6 | 17.4 | 0.00 | 0.00 | 0.00 | 47 | 1007.1 |
| 20260508154803 | 55 | 243 | 3.5 | 17.4 | 0.00 | 0.00 | 0.00 | 48 | 1007.3 |
| 20260508154704 | 54 | 245 | 9.6 | 17.4 | 0.00 | 0.00 | 0.00 | 48 | 1007.2 |
| 20260508154621 | 55 | 244 | 8.7 | 17.4 | 0.00 | 0.00 | 0.00 | 47 | 1007.2 |
| 20260508154603 | 55 | 251 | 7.0 | 15.6 | 0.00 | 0.00 | 0.00 | 48 | 1007.2 |
| 20260508154303 | 55 | 243 | 7.8 | 15.6 | 0.00 | 0.00 | 0.00 | 48 | 1007.2 |
| 20260508154205 | 54 | 254 | 9.6 | 15.6 | 0.00 | 0.00 | 0.00 | 48 | 1007.3 |
| 20260508154119 | 54 | 264 | 9.6 | 15.6 | 0.00 | 0.00 | 0.00 | 48 | 1007.4 |
| 20260508154104 | 54 | 258 | 9.6 | 15.6 | 0.00 | 0.00 | 0.00 | 48 | 1007.4 |
| 20260508154017 | 55 | 243 | 7.0 | 14.8 | 0.00 | 0.00 | 0.00 | 49 | 1007.3 |
| 20260508154003 | 55 | 242 | 7.0 | 14.8 | 0.00 | 0.00 | 0.00 | 49 | 1007.3 |
| 20260508153704 | 54 | 222 | 9.6 | 14.8 | 0.00 | 0.00 | 0.00 | 49 | 1007.5 |
| 20260508153603 | 54 | 232 | 9.6 | 18.2 | 0.00 | 0.00 | 0.00 | 49 | 1007.5 |
| 20260508153504 | 54 | 237 | 8.7 | 18.2 | 0.00 | 0.00 | 0.00 | 49 | 1007.3 |
| 20260508153403 | 54 | 232 | 9.6 | 18.2 | 0.00 | 0.00 | 0.00 | 49 | 1007.5 |
| 20260508153206 | 54 | 243 | 9.6 | 18.2 | 0.00 | 0.00 | 0.00 | 49 | 1007.4 |
| 20260508153103 | 54 | 234 | 9.6 | 18.2 | 0.00 | 0.00 | 0.00 | 49 | 1007.4 |
| 20260508152903 | 54 | 243 | 7.8 | 14.8 | 0.00 | 0.00 | 0.00 | 50 | 1007.6 |
| 20260508152804 | 54 | 241 | 7.8 | 14.8 | 0.00 | 0.00 | 0.00 | 50 | 1007.5 |
| 20260508152704 | 54 | 238 | 9.6 | 14.8 | 0.00 | 0.00 | 0.00 | 50 | 1007.4 |
| 20260508152605 | 55 | 234 | 5.2 | 13.9 | 0.00 | 0.00 | 0.00 | 50 | 1007.3 |
| 20260508152415 | 54 | 233 | 7.0 | 13.9 | 0.00 | 0.00 | 0.00 | 50 | 1007.4 |
| 20260508152403 | 54 | 232 | 7.0 | 13.9 | 0.00 | 0.00 | 0.00 | 50 | 1007.4 |
| 20260508152306 | 54 | 238 | 5.2 | 14.8 | 0.00 | 0.00 | 0.00 | 50 | 1007.2 |
| 20260508152103 | 53 | 251 | 7.0 | 14.8 | 0.00 | 0.00 | 0.00 | 51 | 1007.5 |
| 20260508152003 | 53 | 249 | 8.7 | 14.8 | 0.00 | 0.00 | 0.00 | 51 | 1007.5 |
| 20260508151903 | 53 | 252 | 7.0 | 14.8 | 0.00 | 0.00 | 0.00 | 51 | 1007.6 |
| 20260508151805 | 53 | 255 | 8.7 | 13.9 | 0.00 | 0.00 | 0.00 | 50 | 1007.5 |
| 20260508151705 | 53 | 251 | 9.6 | 13.9 | 0.00 | 0.00 | 0.00 | 50 | 1007.5 |
| 20260508151613 | 53 | 245 | 6.1 | 14.8 | 0.00 | 0.00 | 0.00 | 51 | 1007.4 |
| 20260508151603 | 53 | 240 | 6.1 | 14.8 | 0.00 | 0.00 | 0.00 | 51 | 1007.4 |
| 20260508151505 | 53 | 242 | 4.3 | 14.8 | 0.00 | 0.00 | 0.00 | 51 | 1007.5 |
| 20260508151303 | 52 | 234 | 5.2 | 17.4 | 0.00 | 0.00 | 0.00 | 52 | 1007.5 |
| 20260508151205 | 52 | 233 | 7.0 | 17.4 | 0.00 | 0.00 | 0.00 | 52 | 1007.5 |
| 20260508151104 | 52 | 229 | 9.6 | 17.4 | 0.00 | 0.00 | 0.00 | 52 | 1007.5 |
| 20260508151004 | 52 | 230 | 8.7 | 17.4 | 0.00 | 0.00 | 0.00 | 52 | 1007.6 |
| 20260508150803 | 53 | 230 | 8.7 | 18.2 | 0.00 | 0.00 | 0.00 | 51 | 1007.7 |
| 20260508150706 | 53 | 230 | 7.8 | 18.2 | 0.00 | 0.00 | 0.00 | 51 | 1007.6 |
| 20260508150604 | 52 | 222 | 9.6 | 18.2 | 0.00 | 0.00 | 0.00 | 52 | 1007.6 |
| 20260508150504 | 52 | 217 | 9.6 | 18.2 | 0.00 | 0.00 | 0.00 | 52 | 1007.8 |
| 20260508150404 | 52 | 222 | 9.6 | 18.2 | 0.00 | 0.00 | 0.00 | 52 | 1007.5 |
| 20260508150304 | 52 | 222 | 7.0 | 17.4 | 0.00 | 0.00 | 0.00 | 52 | 1007.6 |
| 20260508150204 | 52 | 224 | 9.6 | 17.4 | 0.00 | 0.00 | 0.00 | 52 | 1007.7 |
| 20260508150105 | 52 | 236 | 7.0 | 14.8 | 0.00 | 0.00 | 0.00 | 52 | 1007.7 |
| 20260508150005 | 52 | 241 | 9.6 | 14.8 | 0.00 | 0.00 | 0.00 | 51 | 1007.5 |
| 20260508145904 | 52 | 231 | 6.1 | 14.8 | 0.00 | 0.00 | 0.00 | 51 | 1007.7 |
| 20260508145806 | 53 | 230 | 4.3 | 23.5 | 0.00 | 0.00 | 0.00 | 52 | 1007.8 |
| 20260508145704 | 53 | 227 | 6.1 | 23.5 | 0.00 | 0.00 | 0.00 | 52 | 1007.5 |
| 20260508145604 | 52 | 231 | 5.2 | 23.5 | 0.00 | 0.00 | 0.00 | 52 | 1007.6 |
| 20260508145504 | 52 | 236 | 5.2 | 23.5 | 0.00 | 0.00 | 0.00 | 52 | 1007.6 |
| 20260508145404 | 52 | 244 | 11.3 | 23.5 | 0.00 | 0.00 | 0.00 | 51 | 1007.7 |
| 20260508145306 | 52 | 248 | 11.3 | 23.5 | 0.00 | 0.00 | 0.00 | 51 | 1007.7 |
| 20260508145205 | 53 | 248 | 7.0 | 15.6 | 0.00 | 0.00 | 0.00 | 52 | 1007.5 |
| 20260508145103 | 53 | 238 | 7.8 | 20.0 | 0.00 | 0.00 | 0.00 | 52 | 1007.7 |
| 20260508145005 | 52 | 240 | 9.6 | 21.7 | 0.00 | 0.00 | 0.00 | 51 | 1007.6 |
| 20260508133914 | 51 | 227 | 5.2 | 13.0 | 0.00 | 0.00 | 0.00 | 59 | 1007.8 |
| 20260508131904 | 50 | 240 | 6.1 | 18.2 | 0.00 | 0.00 | 0.00 | 59 | 1007.4 |
| 20260508131806 | 50 | 239 | 7.0 | 18.2 | 0.00 | 0.00 | 0.00 | 58 | 1007.6 |
| 20260508131705 | 50 | 244 | 8.7 | 13.9 | 0.00 | 0.00 | 0.00 | 59 | 1007.6 |
| 20260508131605 | 50 | 237 | 7.8 | 13.9 | 0.00 | 0.00 | 0.00 | 59 | 1007.2 |
| 20260508131504 | 50 | 236 | 7.0 | 13.9 | 0.00 | 0.00 | 0.00 | 59 | 1007.4 |
| 20260508131417 | 51 | 226 | 5.2 | 13.9 | 0.00 | 0.00 | 0.00 | 59 | 1007.2 |
| 20260508131404 | 50 | 228 | 5.2 | 13.9 | 0.00 | 0.00 | 0.00 | 59 | 1007.2 |
| 20260508131305 | 50 | 233 | 6.1 | 13.9 | 0.00 | 0.00 | 0.00 | 59 | 1007.5 |
| 20260508131214 | 50 | 234 | 5.2 | 13.9 | 0.00 | 0.00 | 0.00 | 59 | 1007.4 |
| 20260508131104 | 50 | 236 | 7.0 | 15.6 | 0.00 | 0.00 | 0.00 | 59 | 1007.3 |
| 20260508130904 | 50 | 253 | 6.1 | 15.6 | 0.00 | 0.00 | 0.00 | 60 | 1007.4 |
| 20260508130805 | 50 | 249 | 7.0 | 15.6 | 0.00 | 0.00 | 0.00 | 61 | 1007.4 |
| 20260508130704 | 50 | 246 | 7.0 | 15.6 | 0.00 | 0.00 | 0.00 | 61 | 1007.2 |
| 20260508130604 | 49 | 251 | 9.6 | 15.6 | 0.00 | 0.00 | 0.00 | 60 | 1007.3 |
| 20260508130505 | 49 | 247 | 7.0 | 13.0 | 0.00 | 0.00 | 0.00 | 61 | 1007.1 |
| 20260508130405 | 49 | 246 | 7.0 | 13.0 | 0.00 | 0.00 | 0.00 | 61 | 1007.1 |
| 20260508130309 | 49 | 256 | 7.0 | 13.0 | 0.00 | 0.00 | 0.00 | 61 | 1007.1 |
| 20260508130205 | 49 | 257 | 7.0 | 13.0 | 0.00 | 0.00 | 0.00 | 61 | 1007.1 |
| 20260508130113 | 49 | 253 | 7.0 | 13.0 | 0.00 | 0.00 | 0.00 | 61 | 1007.1 |
| 20260508130004 | 49 | 249 | 7.0 | 13.0 | 0.00 | 0.00 | 0.00 | 61 | 1006.9 |
| 20260508125803 | 49 | 239 | 7.8 | 12.2 | 0.00 | 0.00 | 0.00 | 61 | 1006.9 |
| 20260508125705 | 49 | 249 | 4.3 | 12.2 | 0.00 | 0.00 | 0.00 | 61 | 1007.1 |
| 20260508125607 | 49 | 251 | 5.2 | 12.2 | 0.00 | 0.00 | 0.00 | 61 | 1006.9 |
| 20260508125503 | 49 | 250 | 7.8 | 13.9 | 0.00 | 0.00 | 0.00 | 61 | 1007.1 |
| 20260508125204 | 49 | 242 | 7.8 | 13.9 | 0.00 | 0.00 | 0.00 | 61 | 1007.0 |
| 20260508125103 | 49 | 240 | 8.7 | 13.9 | 0.00 | 0.00 | 0.00 | 61 | 1007.2 |
| 20260508125003 | 49 | 239 | 4.3 | 13.9 | 0.00 | 0.00 | 0.00 | 61 | 1007.1 |
| 20260508124903 | 49 | 242 | 6.1 | 15.6 | 0.00 | 0.00 | 0.00 | 61 | 1007.0 |
| 20260508124805 | 49 | 245 | 4.3 | 15.6 | 0.00 | 0.00 | 0.00 | 61 | 1006.9 |
| 20260508124704 | 49 | 245 | 4.3 | 15.6 | 0.00 | 0.00 | 0.00 | 61 | 1007.0 |
| 20260508124604 | 49 | 247 | 9.6 | 15.6 | 0.00 | 0.00 | 0.00 | 61 | 1007.0 |
| 20260508124504 | 49 | 252 | 3.5 | 15.6 | 0.00 | 0.00 | 0.00 | 61 | 1007.2 |
| 20260508124303 | 49 | 260 | 7.0 | 15.6 | 0.00 | 0.00 | 0.00 | 61 | 1007.0 |
| 20260508124205 | 49 | 259 | 6.1 | 14.8 | 0.00 | 0.00 | 0.00 | 62 | 1007.0 |
| 20260508124104 | 49 | 253 | 9.6 | 17.4 | 0.00 | 0.00 | 0.00 | 61 | 1007.1 |
| 20260508124005 | 49 | 249 | 5.2 | 17.4 | 0.00 | 0.00 | 0.00 | 62 | 1006.7 |
| 20260508123903 | 48 | 252 | 7.0 | 17.4 | 0.00 | 0.00 | 0.00 | 62 | 1007.0 |
| 20260508123803 | 48 | 246 | 6.1 | 17.4 | 0.00 | 0.00 | 0.00 | 62 | 1006.9 |
| 20260508123604 | 48 | 243 | 7.0 | 17.4 | 0.00 | 0.00 | 0.00 | 62 | 1006.9 |
| 20260508123505 | 48 | 243 | 8.7 | 14.8 | 0.00 | 0.00 | 0.00 | 62 | 1006.8 |
| 20260508123403 | 48 | 241 | 3.5 | 13.9 | 0.00 | 0.00 | 0.00 | 62 | 1006.7 |
| 20260508123303 | 48 | 251 | 7.0 | 13.9 | 0.00 | 0.00 | 0.00 | 62 | 1006.9 |
| 20260508123206 | 48 | 269 | 7.0 | 14.8 | 0.00 | 0.00 | 0.00 | 62 | 1006.8 |
| 20260508123103 | 48 | 284 | 3.5 | 14.8 | 0.00 | 0.00 | 0.00 | 62 | 1006.9 |
| 20260508123004 | 48 | 277 | 8.7 | 15.6 | 0.00 | 0.00 | 0.00 | 62 | 1006.6 |
| 20260508122805 | 48 | 267 | 5.2 | 15.6 | 0.00 | 0.00 | 0.00 | 62 | 1006.9 |
| 20260508122705 | 48 | 259 | 9.6 | 15.6 | 0.00 | 0.00 | 0.00 | 62 | 1006.6 |
| 20260508122605 | 48 | 246 | 9.6 | 15.6 | 0.00 | 0.00 | 0.00 | 61 | 1006.7 |
| 20260508122504 | 48 | 249 | 6.1 | 13.0 | 0.00 | 0.00 | 0.00 | 62 | 1006.9 |
| 20260508122403 | 48 | 248 | 7.0 | 13.0 | 0.00 | 0.00 | 0.00 | 62 | 1006.8 |
| 20260508122306 | 48 | 248 | 4.3 | 13.0 | 0.00 | 0.00 | 0.00 | 62 | 1006.8 |
| 20260508122219 | 48 | 248 | 5.2 | 13.0 | 0.00 | 0.00 | 0.00 | 62 | 1006.7 |
| 20260508122204 | 48 | 248 | 6.1 | 13.0 | 0.00 | 0.00 | 0.00 | 62 | 1006.7 |
| 20260508121904 | 48 | 247 | 4.3 | 14.8 | 0.00 | 0.00 | 0.00 | 62 | 1006.7 |
| 20260508121805 | 48 | 251 | 4.3 | 14.8 | 0.00 | 0.00 | 0.00 | 62 | 1006.6 |
| 20260508121704 | 47 | 248 | 5.2 | 14.8 | 0.00 | 0.00 | 0.00 | 62 | 1006.7 |
| 20260508121604 | 47 | 242 | 7.8 | 14.8 | 0.00 | 0.00 | 0.00 | 62 | 1006.8 |
| 20260508121505 | 47 | 243 | 8.7 | 14.8 | 0.00 | 0.00 | 0.00 | 62 | 1007.0 |
| 20260508121417 | 47 | 236 | 7.0 | 13.9 | 0.00 | 0.00 | 0.00 | 62 | 1006.8 |
| 20260508121403 | 47 | 234 | 6.1 | 13.9 | 0.00 | 0.00 | 0.00 | 62 | 1006.6 |
| 20260508121305 | 47 | 231 | 4.3 | 14.8 | 0.00 | 0.00 | 0.00 | 62 | 1006.7 |
| 20260508121104 | 47 | 244 | 9.6 | 14.8 | 0.00 | 0.00 | 0.00 | 62 | 1006.8 |
| 20260508121007 | 47 | 245 | 6.1 | 14.8 | 0.00 | 0.00 | 0.00 | 62 | 1006.9 |
| 20260508120805 | 47 | 242 | 7.0 | 14.8 | 0.00 | 0.00 | 0.00 | 62 | 1006.7 |
| 20260508120703 | 47 | 238 | 6.1 | 13.9 | 0.00 | 0.00 | 0.00 | 63 | 1006.5 |
| 20260508120604 | 47 | 234 | 8.7 | 13.9 | 0.00 | 0.00 | 0.00 | 62 | 1006.4 |
| 20260508120507 | 47 | 232 | 7.8 | 13.0 | 0.00 | 0.00 | 0.00 | 62 | 1006.5 |
| 20260508120408 | 47 | 235 | 7.0 | 13.0 | 0.00 | 0.00 | 0.00 | 62 | 1006.7 |
| 20260508120304 | 47 | 236 | 8.7 | 13.0 | 0.00 | 0.00 | 0.00 | 62 | 1006.7 |
| 20260508120203 | 47 | 243 | 7.0 | 11.3 | 0.00 | 0.00 | 0.00 | 62 | 1006.6 |
| 20260508120105 | 47 | 249 | 6.1 | 11.3 | 0.00 | 0.00 | 0.00 | 62 | 1006.4 |
| 20260508120005 | 47 | 247 | 6.1 | 13.0 | 0.00 | 0.00 | 0.00 | 63 | 1006.6 |
| 20260508115805 | 47 | 243 | 3.5 | 15.6 | 0.00 | 0.00 | 0.00 | 63 | 1006.6 |
| 20260508115705 | 47 | 235 | 6.1 | 15.6 | 0.00 | 0.00 | 0.00 | 63 | 1006.6 |
| 20260508115606 | 47 | 229 | 7.0 | 15.6 | 0.00 | 0.00 | 0.00 | 63 | 1006.6 |
| 20260508115505 | 47 | 227 | 7.0 | 15.6 | 0.00 | 0.00 | 0.00 | 63 | 1006.5 |
| 20260508115306 | 47 | 211 | 8.7 | 13.0 | 0.00 | 0.00 | 0.00 | 63 | 1006.5 |
| 20260508115203 | 47 | 216 | 5.2 | 11.3 | 0.00 | 0.00 | 0.00 | 63 | 1006.4 |
| 20260508115103 | 47 | 218 | 5.2 | 13.0 | 0.00 | 0.00 | 0.00 | 63 | 1006.4 |
| 20260508115005 | 47 | 219 | 7.0 | 13.0 | 0.00 | 0.00 | 0.00 | 63 | 1006.4 |
| 20260508114903 | 47 | 238 | 7.0 | 13.0 | 0.00 | 0.00 | 0.00 | 63 | 1006.4 |
| 20260508114803 | 47 | 237 | 4.3 | 13.0 | 0.00 | 0.00 | 0.00 | 63 | 1006.7 |
| 20260508114705 | 47 | 238 | 7.0 | 13.0 | 0.00 | 0.00 | 0.00 | 63 | 1006.3 |
| 20260508114603 | 47 | 251 | 4.3 | 13.0 | 0.00 | 0.00 | 0.00 | 63 | 1006.5 |
| 20260508114504 | 47 | 258 | 3.5 | 13.0 | 0.00 | 0.00 | 0.00 | 63 | 1006.4 |
| 20260508114305 | 46 | 247 | 6.1 | 13.0 | 0.00 | 0.00 | 0.00 | 63 | 1006.1 |
| 20260508114203 | 46 | 240 | 7.0 | 14.8 | 0.00 | 0.00 | 0.00 | 63 | 1006.2 |
| 20260508114003 | 46 | 229 | 7.0 | 14.8 | 0.00 | 0.00 | 0.00 | 63 | 1006.5 |
| 20260508113904 | 46 | 236 | 7.8 | 14.8 | 0.00 | 0.00 | 0.00 | 63 | 1006.5 |
| 20260508113805 | 46 | 247 | 10.4 | 15.6 | 0.00 | 0.00 | 0.00 | 63 | 1006.3 |
| 20260508113715 | 46 | 253 | 7.8 | 15.6 | 0.00 | 0.00 | 0.00 | 63 | 1006.1 |
| 20260508113706 | 46 | 252 | 7.8 | 15.6 | 0.00 | 0.00 | 0.00 | 63 | 1006.1 |
| 20260508113605 | 46 | 250 | 6.1 | 15.6 | 0.00 | 0.00 | 0.00 | 63 | 1006.3 |
| 20260508113404 | 46 | 248 | 7.8 | 17.4 | 0.00 | 0.00 | 0.00 | 63 | 1006.2 |
| 20260508113304 | 46 | 244 | 3.5 | 17.4 | 0.00 | 0.00 | 0.00 | 63 | 1006.2 |
| 20260508113203 | 46 | 246 | 7.0 | 17.4 | 0.00 | 0.00 | 0.00 | 63 | 1006.5 |
| 20260508113105 | 46 | 248 | 6.1 | 17.4 | 0.00 | 0.00 | 0.00 | 63 | 1006.3 |
| 20260508113004 | 46 | 255 | 7.0 | 13.9 | 0.00 | 0.00 | 0.00 | 63 | 1006.3 |
| 20260508112905 | 46 | 251 | 7.0 | 13.9 | 0.00 | 0.00 | 0.00 | 63 | 1006.3 |
| 20260508112804 | 46 | 250 | 7.8 | 13.9 | 0.00 | 0.00 | 0.00 | 63 | 1006.3 |
| 20260508112704 | 46 | 251 | 7.8 | 13.9 | 0.00 | 0.00 | 0.00 | 63 | 1006.3 |
| 20260508112604 | 46 | 256 | 8.7 | 13.9 | 0.00 | 0.00 | 0.00 | 63 | 1006.5 |
| 20260508112504 | 46 | 250 | 8.7 | 13.9 | 0.00 | 0.00 | 0.00 | 63 | 1006.4 |
| 20260508112404 | 46 | 253 | 7.0 | 13.0 | 0.00 | 0.00 | 0.00 | 63 | 1006.2 |
| 20260508112306 | 46 | 251 | 4.3 | 13.0 | 0.00 | 0.00 | 0.00 | 63 | 1006.3 |
| 20260508112204 | 46 | 247 | 7.0 | 13.0 | 0.00 | 0.00 | 0.00 | 63 | 1006.3 |
| 20260508112107 | 46 | 234 | 7.0 | 13.0 | 0.00 | 0.00 | 0.00 | 63 | 1006.5 |
| 20260508112004 | 46 | 225 | 8.7 | 13.0 | 0.00 | 0.00 | 0.00 | 62 | 1006.2 |
| 20260508111905 | 46 | 222 | 4.3 | 13.0 | 0.00 | 0.00 | 0.00 | 63 | 1006.2 |
| 20260508111804 | 46 | 226 | 3.5 | 13.0 | 0.00 | 0.00 | 0.00 | 63 | 1006.3 |
| 20260508111704 | 46 | 230 | 7.0 | 13.0 | 0.00 | 0.00 | 0.00 | 63 | 1006.3 |
| 20260508111616 | 46 | 234 | 7.0 | 13.0 | 0.00 | 0.00 | 0.00 | 63 | 1006.2 |
| 20260508111603 | 46 | 237 | 7.0 | 13.0 | 0.00 | 0.00 | 0.00 | 63 | 1006.2 |
| 20260508111503 | 46 | 235 | 9.6 | 13.0 | 0.00 | 0.00 | 0.00 | 63 | 1006.2 |
| 20260508111303 | 46 | 232 | 7.0 | 12.2 | 0.00 | 0.00 | 0.00 | 63 | 1006.3 |
| 20260508111205 | 46 | 238 | 6.1 | 13.0 | 0.00 | 0.00 | 0.00 | 63 | 1006.0 |
| 20260508111105 | 46 | 231 | 5.2 | 13.0 | 0.00 | 0.00 | 0.00 | 63 | 1006.2 |
| 20260508111003 | 46 | 235 | 4.3 | 14.8 | 0.00 | 0.00 | 0.00 | 63 | 1006.3 |
| 20260508110904 | 46 | 242 | 4.3 | 14.8 | 0.00 | 0.00 | 0.00 | 63 | 1006.4 |
| 20260508110805 | 46 | 239 | 7.0 | 14.8 | 0.00 | 0.00 | 0.00 | 63 | 1006.1 |
| 20260508110704 | 46 | 233 | 7.0 | 14.8 | 0.00 | 0.00 | 0.00 | 63 | 1006.2 |
| 20260508110604 | 46 | 234 | 7.0 | 14.8 | 0.00 | 0.00 | 0.00 | 63 | 1006.1 |
| 20260508110503 | 46 | 237 | 11.3 | 14.8 | 0.00 | 0.00 | 0.00 | 63 | 1006.1 |
| 20260508110405 | 46 | 232 | 7.0 | 14.8 | 0.00 | 0.00 | 0.00 | 63 | 1005.9 |
| 20260508110303 | 46 | 228 | 9.6 | 14.8 | 0.00 | 0.00 | 0.00 | 63 | 1006.0 |
| 20260508110203 | 46 | 228 | 7.0 | 14.8 | 0.00 | 0.00 | 0.00 | 63 | 1006.1 |
| 20260508110007 | 46 | 230 | 6.1 | 14.8 | 0.00 | 0.00 | 0.00 | 63 | 1005.8 |
| 20260508105909 | 46 | 236 | 6.1 | 14.8 | 0.00 | 0.00 | 0.00 | 63 | 1005.9 |
| 20260508105816 | 46 | 242 | 7.0 | 13.9 | 0.00 | 0.00 | 0.00 | 63 | 1005.8 |
| 20260508105703 | 46 | 258 | 7.0 | 13.9 | 0.00 | 0.00 | 0.00 | 63 | 1006.0 |
| 20260508105503 | 46 | 251 | 7.8 | 13.9 | 0.00 | 0.00 | 0.00 | 63 | 1006.0 |
| 20260508105405 | 46 | 246 | 7.0 | 13.0 | 0.00 | 0.00 | 0.00 | 63 | 1005.7 |
| 20260508105306 | 46 | 241 | 8.7 | 13.0 | 0.00 | 0.00 | 0.00 | 63 | 1006.0 |
| 20260508105203 | 46 | 233 | 7.8 | 13.0 | 0.00 | 0.00 | 0.00 | 63 | 1005.8 |
| 20260508105103 | 46 | 237 | 5.2 | 13.0 | 0.00 | 0.00 | 0.00 | 63 | 1006.2 |
| 20260508105003 | 46 | 246 | 6.1 | 13.0 | 0.00 | 0.00 | 0.00 | 64 | 1006.0 |
| 20260508104905 | 46 | 248 | 5.2 | 13.0 | 0.00 | 0.00 | 0.00 | 64 | 1005.9 |
| 20260508104703 | 46 | 238 | 3.5 | 13.9 | 0.00 | 0.00 | 0.00 | 63 | 1006.1 |
| 20260508104603 | 46 | 242 | 7.0 | 14.8 | 0.00 | 0.00 | 0.00 | 63 | 1005.9 |
| 20260508104505 | 46 | 240 | 7.0 | 14.8 | 0.00 | 0.00 | 0.00 | 63 | 1005.8 |
| 20260508104403 | 46 | 246 | 4.3 | 14.8 | 0.00 | 0.00 | 0.00 | 63 | 1005.9 |
| 20260508104305 | 46 | 249 | 8.7 | 14.8 | 0.00 | 0.00 | 0.00 | 63 | 1005.8 |
| 20260508104203 | 46 | 251 | 9.6 | 14.8 | 0.00 | 0.00 | 0.00 | 63 | 1005.8 |
| 20260508104105 | 46 | 244 | 6.1 | 12.2 | 0.00 | 0.00 | 0.00 | 63 | 1005.8 |
| 20260508104004 | 46 | 241 | 3.5 | 12.2 | 0.00 | 0.00 | 0.00 | 63 | 1005.9 |
| 20260508103903 | 46 | 233 | 6.1 | 12.2 | 0.00 | 0.00 | 0.00 | 63 | 1005.8 |
| 20260508103804 | 46 | 232 | 4.3 | 13.0 | 0.00 | 0.00 | 0.00 | 63 | 1005.6 |
| 20260508103704 | 46 | 239 | 3.5 | 13.0 | 0.00 | 0.00 | 0.00 | 63 | 1005.7 |
| 20260508103604 | 46 | 240 | 6.1 | 13.0 | 0.00 | 0.00 | 0.00 | 63 | 1005.5 |
| 20260508103504 | 46 | 252 | 3.5 | 13.0 | 0.00 | 0.00 | 0.00 | 63 | 1005.6 |
| 20260508103417 | 46 | 255 | 6.1 | 14.8 | 0.00 | 0.00 | 0.00 | 63 | 1005.7 |
| 20260508103403 | 46 | 257 | 5.2 | 14.8 | 0.00 | 0.00 | 0.00 | 63 | 1005.8 |
| 20260508103315 | 46 | 261 | 9.6 | 14.8 | 0.00 | 0.00 | 0.00 | 63 | 1005.6 |
| 20260508103305 | 46 | 260 | 9.6 | 14.8 | 0.00 | 0.00 | 0.00 | 63 | 1005.6 |
| 20260508103004 | 46 | 250 | 7.0 | 14.8 | 0.00 | 0.00 | 0.00 | 63 | 1005.5 |
| 20260508102903 | 46 | 244 | 7.0 | 12.2 | 0.00 | 0.00 | 0.00 | 63 | 1005.9 |
| 20260508102807 | 46 | 236 | 5.2 | 12.2 | 0.00 | 0.00 | 0.00 | 63 | 1005.5 |
| 20260508102704 | 46 | 229 | 7.0 | 12.2 | 0.00 | 0.00 | 0.00 | 63 | 1005.6 |
| 20260508102616 | 46 | 229 | 6.1 | 11.3 | 0.00 | 0.00 | 0.00 | 64 | 1005.7 |
| 20260508102603 | 46 | 229 | 4.3 | 11.3 | 0.00 | 0.00 | 0.00 | 64 | 1005.6 |
| 20260508102503 | 46 | 232 | 4.3 | 11.3 | 0.00 | 0.00 | 0.00 | 64 | 1005.6 |
| 20260508102306 | 46 | 233 | 5.2 | 11.3 | 0.00 | 0.00 | 0.00 | 64 | 1005.4 |
| 20260508102206 | 46 | 238 | 3.5 | 11.3 | 0.00 | 0.00 | 0.00 | 64 | 1005.5 |
| 20260508102114 | 46 | 239 | 3.5 | 11.3 | 0.00 | 0.00 | 0.00 | 64 | 1005.6 |
| 20260508102103 | 46 | 240 | 3.5 | 11.3 | 0.00 | 0.00 | 0.00 | 64 | 1005.6 |
| 20260508102017 | 46 | 245 | 3.5 | 11.3 | 0.00 | 0.00 | 0.00 | 64 | 1005.4 |
| 20260508102004 | 46 | 248 | 3.5 | 11.3 | 0.00 | 0.00 | 0.00 | 64 | 1005.4 |
| 20260508101814 | 46 | 251 | 6.1 | 9.6 | 0.00 | 0.00 | 0.00 | 63 | 1005.4 |
| 20260508101703 | 46 | 247 | 7.0 | 9.6 | 0.00 | 0.00 | 0.00 | 63 | 1005.3 |
| 20260508101617 | 46 | 240 | 6.1 | 9.6 | 0.00 | 0.00 | 0.00 | 64 | 1005.4 |
| 20260508101504 | 46 | 227 | 5.2 | 9.6 | 0.00 | 0.00 | 0.00 | 64 | 1005.5 |
| 20260508101305 | 46 | 221 | 6.1 | 13.0 | 0.00 | 0.00 | 0.00 | 64 | 1005.7 |
| 20260508101205 | 46 | 217 | 4.3 | 13.0 | 0.00 | 0.00 | 0.00 | 64 | 1005.5 |
| 20260508101103 | 46 | 223 | 4.3 | 13.0 | 0.00 | 0.00 | 0.00 | 64 | 1005.3 |
| 20260508101003 | 46 | 230 | 6.1 | 13.0 | 0.00 | 0.00 | 0.00 | 64 | 1005.4 |
| 20260508100805 | 46 | 240 | 7.0 | 12.2 | 0.00 | 0.00 | 0.00 | 64 | 1005.5 |
| 20260508100703 | 46 | 243 | 4.3 | 12.2 | 0.00 | 0.00 | 0.00 | 64 | 1005.5 |
| 20260508100618 | 46 | 246 | 3.5 | 12.2 | 0.00 | 0.00 | 0.00 | 64 | 1005.6 |
| 20260508100603 | 46 | 249 | 6.1 | 12.2 | 0.00 | 0.00 | 0.00 | 64 | 1005.5 |
| 20260508100503 | 46 | 249 | 7.0 | 12.2 | 0.00 | 0.00 | 0.00 | 63 | 1005.4 |
| 20260508100415 | 46 | 244 | 7.0 | 13.0 | 0.00 | 0.00 | 0.00 | 63 | 1005.4 |
| 20260508100306 | 46 | 247 | 7.8 | 13.0 | 0.00 | 0.00 | 0.00 | 63 | 1005.4 |
| 20260508100103 | 46 | 244 | 5.2 | 13.0 | 0.00 | 0.00 | 0.00 | 63 | 1005.3 |
| 20260508100004 | 46 | 244 | 5.2 | 13.0 | 0.00 | 0.00 | 0.00 | 64 | 1005.4 |
| 20260508095903 | 46 | 241 | 6.1 | 13.0 | 0.00 | 0.00 | 0.00 | 64 | 1005.4 |
| 20260508095816 | 46 | 241 | 6.1 | 13.0 | 0.00 | 0.00 | 0.00 | 64 | 1005.4 |
| 20260508095806 | 46 | 240 | 3.5 | 12.2 | 0.00 | 0.00 | 0.00 | 64 | 1005.3 |
| 20260508095503 | 46 | 238 | 3.5 | 13.0 | 0.00 | 0.00 | 0.00 | 64 | 1005.4 |
| 20260508095403 | 46 | 236 | 7.8 | 13.0 | 0.00 | 0.00 | 0.00 | 64 | 1005.3 |
| 20260508095204 | 46 | 223 | 7.0 | 13.0 | 0.00 | 0.00 | 0.00 | 64 | 1005.1 |
| 20260508095104 | 46 | 223 | 7.0 | 13.0 | 0.00 | 0.00 | 0.00 | 64 | 1005.3 |
| 20260508095015 | 46 | 225 | 7.0 | 12.2 | 0.00 | 0.00 | 0.00 | 64 | 1005.3 |
| 20260508095004 | 46 | 223 | 6.1 | 12.2 | 0.00 | 0.00 | 0.00 | 64 | 1005.2 |
| 20260508094918 | 46 | 223 | 7.0 | 12.2 | 0.00 | 0.00 | 0.00 | 64 | 1005.5 |
| 20260508094907 | 46 | 225 | 7.0 | 12.2 | 0.00 | 0.00 | 0.00 | 64 | 1005.5 |
| 20260508094716 | 46 | 239 | 7.0 | 12.2 | 0.00 | 0.00 | 0.00 | 64 | 1005.4 |
| 20260508094619 | 46 | 240 | 7.0 | 12.2 | 0.00 | 0.00 | 0.00 | 64 | 1005.4 |
| 20260508094604 | 46 | 243 | 6.1 | 11.3 | 0.00 | 0.00 | 0.00 | 65 | 1005.4 |
| 20260508094513 | 46 | 247 | 4.3 | 11.3 | 0.00 | 0.00 | 0.00 | 65 | 1005.3 |
| 20260508094203 | 46 | 248 | 5.2 | 12.2 | 0.00 | 0.00 | 0.00 | 65 | 1005.2 |
| 20260508094105 | 46 | 251 | 7.0 | 12.2 | 0.00 | 0.00 | 0.00 | 65 | 1005.3 |
| 20260508094009 | 46 | 250 | 7.0 | 13.0 | 0.00 | 0.00 | 0.00 | 65 | 1005.4 |
| 20260508093907 | 46 | 245 | 3.5 | 13.0 | 0.00 | 0.00 | 0.00 | 65 | 1005.2 |
| 20260508093703 | 46 | 250 | 7.8 | 13.0 | 0.00 | 0.00 | 0.00 | 65 | 1005.1 |
| 20260508093603 | 46 | 255 | 7.8 | 13.9 | 0.00 | 0.00 | 0.00 | 65 | 1005.2 |
| 20260508093504 | 46 | 257 | 7.8 | 13.9 | 0.00 | 0.00 | 0.00 | 66 | 1005.2 |
| 20260508093404 | 46 | 250 | 3.5 | 14.8 | 0.00 | 0.00 | 0.00 | 66 | 1005.2 |
| 20260508093305 | 46 | 245 | 7.0 | 14.8 | 0.00 | 0.00 | 0.00 | 66 | 1005.4 |
| 20260508093203 | 46 | 237 | 6.1 | 14.8 | 0.00 | 0.00 | 0.00 | 66 | 1005.1 |
| 20260508093103 | 46 | 235 | 8.7 | 14.8 | 0.00 | 0.00 | 0.00 | 66 | 1005.2 |
| 20260508093009 | 46 | 226 | 7.0 | 14.8 | 0.00 | 0.00 | 0.00 | 66 | 1005.2 |
| 20260508092904 | 46 | 240 | 6.1 | 12.2 | 0.00 | 0.00 | 0.00 | 66 | 1005.3 |
| 20260508092804 | 46 | 246 | 6.1 | 12.2 | 0.00 | 0.00 | 0.00 | 66 | 1005.3 |
| 20260508092703 | 46 | 253 | 5.2 | 12.2 | 0.00 | 0.00 | 0.00 | 66 | 1005.2 |
| 20260508092603 | 46 | 253 | 6.1 | 12.2 | 0.00 | 0.00 | 0.00 | 66 | 1005.4 |
| 20260508092505 | 46 | 253 | 6.1 | 12.2 | 0.00 | 0.00 | 0.00 | 66 | 1005.4 |
| 20260508092404 | 46 | 245 | 7.8 | 13.9 | 0.00 | 0.00 | 0.00 | 66 | 1005.2 |
| 20260508092312 | 46 | 240 | 4.3 | 13.9 | 0.00 | 0.00 | 0.00 | 66 | 1005.5 |
| 20260508092203 | 46 | 242 | 4.3 | 13.9 | 0.00 | 0.00 | 0.00 | 66 | 1005.3 |
| 20260508092104 | 46 | 240 | 6.1 | 13.9 | 0.00 | 0.00 | 0.00 | 65 | 1005.2 |
| 20260508092005 | 46 | 240 | 6.1 | 13.9 | 0.00 | 0.00 | 0.00 | 65 | 1005.2 |
| 20260508091903 | 46 | 226 | 7.0 | 13.9 | 0.00 | 0.00 | 0.00 | 65 | 1005.2 |
| 20260508091805 | 46 | 233 | 7.8 | 13.0 | 0.00 | 0.00 | 0.00 | 65 | 1005.1 |
| 20260508091605 | 46 | 225 | 3.5 | 13.0 | 0.00 | 0.00 | 0.00 | 65 | 1005.1 |
| 20260508091504 | 46 | 215 | 7.0 | 13.0 | 0.00 | 0.00 | 0.00 | 65 | 1005.1 |
| 20260508091403 | 46 | 228 | 7.0 | 13.0 | 0.00 | 0.00 | 0.00 | 65 | 1005.2 |
| 20260508091313 | 46 | 227 | 7.0 | 13.0 | 0.00 | 0.00 | 0.00 | 65 | 1005.1 |
| 20260508091303 | 46 | 225 | 7.0 | 13.0 | 0.00 | 0.00 | 0.00 | 65 | 1005.1 |
| 20260508091205 | 46 | 212 | 8.7 | 17.4 | 0.00 | 0.00 | 0.00 | 65 | 1005.1 |
| 20260508091003 | 46 | 229 | 5.2 | 17.4 | 0.00 | 0.00 | 0.00 | 65 | 1005.2 |
| 20260508090904 | 46 | 240 | 4.3 | 17.4 | 0.00 | 0.00 | 0.00 | 65 | 1005.0 |
| 20260508090705 | 46 | 249 | 7.8 | 17.4 | 0.00 | 0.00 | 0.00 | 65 | 1005.0 |
| 20260508090603 | 46 | 252 | 8.7 | 14.8 | 0.00 | 0.00 | 0.00 | 65 | 1004.9 |
| 20260508090503 | 46 | 254 | 8.7 | 14.8 | 0.00 | 0.00 | 0.00 | 65 | 1005.1 |
| 20260508090403 | 46 | 250 | 9.6 | 13.9 | 0.00 | 0.00 | 0.00 | 65 | 1005.1 |
| 20260508090303 | 46 | 246 | 5.2 | 13.9 | 0.00 | 0.00 | 0.00 | 65 | 1005.0 |
| 20260508090205 | 46 | 247 | 7.8 | 13.9 | 0.00 | 0.00 | 0.00 | 65 | 1005.0 |
| 20260508090004 | 46 | 252 | 7.0 | 13.0 | 0.00 | 0.00 | 0.00 | 66 | 1004.9 |
| 20260508085904 | 46 | 249 | 6.1 | 13.0 | 0.00 | 0.00 | 0.00 | 66 | 1005.0 |
| 20260508085804 | 46 | 251 | 3.5 | 13.0 | 0.00 | 0.00 | 0.00 | 66 | 1005.0 |
| 20260508085704 | 46 | 250 | 5.2 | 13.0 | 0.00 | 0.00 | 0.00 | 66 | 1005.0 |
| 20260508085603 | 46 | 244 | 5.2 | 13.0 | 0.00 | 0.00 | 0.00 | 66 | 1004.8 |
| 20260508085504 | 46 | 233 | 7.8 | 13.0 | 0.00 | 0.00 | 0.00 | 66 | 1004.9 |
| 20260508085404 | 46 | 232 | 5.2 | 13.0 | 0.00 | 0.00 | 0.00 | 66 | 1005.0 |
| 20260508085306 | 46 | 234 | 7.0 | 13.0 | 0.00 | 0.00 | 0.00 | 66 | 1004.9 |
| 20260508085210 | 46 | 233 | 6.1 | 15.6 | 0.00 | 0.00 | 0.00 | 66 | 1004.9 |
| 20260508085103 | 46 | 227 | 7.0 | 15.6 | 0.00 | 0.00 | 0.00 | 66 | 1004.9 |
| 20260508085004 | 46 | 233 | 7.8 | 15.6 | 0.00 | 0.00 | 0.00 | 67 | 1004.9 |
| 20260508084905 | 46 | 232 | 3.5 | 15.6 | 0.00 | 0.00 | 0.00 | 67 | 1004.6 |
| 20260508084805 | 46 | 229 | 5.2 | 15.6 | 0.00 | 0.00 | 0.00 | 67 | 1004.9 |
| 20260508084704 | 46 | 232 | 9.6 | 15.6 | 0.00 | 0.00 | 0.00 | 67 | 1005.0 |
| 20260508084603 | 46 | 230 | 6.1 | 15.6 | 0.00 | 0.00 | 0.00 | 67 | 1004.7 |
| 20260508084504 | 46 | 233 | 5.2 | 15.6 | 0.00 | 0.00 | 0.00 | 67 | 1004.8 |
| 20260508084417 | 46 | 230 | 6.1 | 15.6 | 0.00 | 0.00 | 0.00 | 67 | 1004.5 |
| 20260508084404 | 46 | 229 | 6.1 | 15.6 | 0.00 | 0.00 | 0.00 | 67 | 1004.5 |
| 20260508084303 | 46 | 232 | 7.0 | 15.6 | 0.00 | 0.00 | 0.00 | 67 | 1004.8 |
| 20260508084103 | 46 | 240 | 5.2 | 12.2 | 0.00 | 0.00 | 0.00 | 67 | 1004.6 |
| 20260508084003 | 46 | 240 | 3.5 | 12.2 | 0.00 | 0.00 | 0.00 | 67 | 1004.6 |
| 20260508083905 | 46 | 239 | 7.0 | 12.2 | 0.00 | 0.00 | 0.00 | 67 | 1004.5 |
| 20260508083803 | 46 | 238 | 5.2 | 9.6 | 0.00 | 0.00 | 0.00 | 67 | 1004.8 |
| 20260508083603 | 46 | 238 | 4.3 | 13.0 | 0.00 | 0.00 | 0.00 | 67 | 1004.6 |
| 20260508083503 | 46 | 240 | 5.2 | 13.0 | 0.00 | 0.00 | 0.00 | 67 | 1004.7 |
| 20260508083404 | 46 | 242 | 6.1 | 13.0 | 0.00 | 0.00 | 0.00 | 67 | 1004.6 |
| 20260508083303 | 46 | 241 | 3.5 | 13.0 | 0.00 | 0.00 | 0.00 | 67 | 1004.7 |
| 20260508083204 | 46 | 243 | 6.1 | 13.0 | 0.00 | 0.00 | 0.00 | 67 | 1004.5 |
| 20260508083103 | 46 | 251 | 7.0 | 13.0 | 0.00 | 0.00 | 0.00 | 67 | 1004.6 |
| 20260508083018 | 46 | 251 | 7.0 | 13.0 | 0.00 | 0.00 | 0.00 | 67 | 1004.5 |
| 20260508083004 | 46 | 251 | 5.2 | 13.0 | 0.00 | 0.00 | 0.00 | 67 | 1004.6 |
| 20260508082904 | 46 | 255 | 9.6 | 13.0 | 0.00 | 0.00 | 0.00 | 67 | 1004.7 |
| 20260508082705 | 46 | 257 | 7.8 | 12.2 | 0.00 | 0.00 | 0.00 | 67 | 1004.5 |
| 20260508082603 | 46 | 247 | 3.5 | 12.2 | 0.00 | 0.00 | 0.00 | 67 | 1004.5 |
| 20260508082503 | 46 | 244 | 5.2 | 12.2 | 0.00 | 0.00 | 0.00 | 67 | 1004.4 |
| 20260508082419 | 46 | 242 | 5.2 | 12.2 | 0.00 | 0.00 | 0.00 | 67 | 1004.5 |
| 20260508082403 | 46 | 241 | 5.2 | 12.2 | 0.00 | 0.00 | 0.00 | 67 | 1004.5 |
| 20260508082306 | 46 | 239 | 5.2 | 12.2 | 0.00 | 0.00 | 0.00 | 67 | 1004.7 |
| 20260508082115 | 46 | 232 | 5.2 | 12.2 | 0.00 | 0.00 | 0.00 | 67 | 1004.7 |
| 20260508082103 | 46 | 233 | 5.2 | 12.2 | 0.00 | 0.00 | 0.00 | 67 | 1004.7 |
| 20260508082005 | 46 | 236 | 7.0 | 12.2 | 0.00 | 0.00 | 0.00 | 67 | 1004.6 |
| 20260508081803 | 46 | 237 | 7.0 | 9.6 | 0.00 | 0.00 | 0.00 | 67 | 1004.4 |
| 20260508081703 | 46 | 240 | 3.5 | 9.6 | 0.00 | 0.00 | 0.00 | 67 | 1004.6 |
| 20260508081604 | 46 | 237 | 4.3 | 9.6 | 0.00 | 0.00 | 0.00 | 67 | 1004.4 |
| 20260508081504 | 46 | 240 | 4.3 | 9.6 | 0.00 | 0.00 | 0.00 | 67 | 1004.6 |
| 20260508081415 | 46 | 248 | 4.3 | 11.3 | 0.00 | 0.00 | 0.00 | 67 | 1004.6 |
| 20260508081404 | 46 | 247 | 6.1 | 11.3 | 0.00 | 0.00 | 0.00 | 67 | 1004.5 |
| 20260508081303 | 46 | 247 | 7.0 | 12.2 | 0.00 | 0.00 | 0.00 | 67 | 1004.6 |
| 20260508081217 | 46 | 252 | 7.0 | 14.8 | 0.00 | 0.00 | 0.00 | 67 | 1004.5 |
| 20260508081106 | 46 | 258 | 6.1 | 14.8 | 0.00 | 0.01 | 0.00 | 68 | 1004.5 |
| 20260508080803 | 46 | 260 | 7.0 | 14.8 | 0.00 | 0.01 | 0.00 | 68 | 1004.7 |
| 20260508080703 | 46 | 254 | 7.8 | 14.8 | 0.00 | 0.01 | 0.00 | 68 | 1004.7 |
| 20260508080605 | 46 | 252 | 7.0 | 14.8 | 0.00 | 0.01 | 0.00 | 68 | 1004.6 |
| 20260508080504 | 46 | 240 | 7.0 | 13.0 | 0.00 | 0.01 | 0.00 | 68 | 1004.6 |
| 20260508080403 | 46 | 234 | 7.8 | 14.8 | 0.00 | 0.01 | 0.00 | 68 | 1004.6 |
| 20260508080303 | 46 | 237 | 7.0 | 14.8 | 0.00 | 0.01 | 0.00 | 69 | 1004.5 |
| 20260508080218 | 46 | 238 | 5.2 | 14.8 | 0.00 | 0.02 | 0.00 | 69 | 1004.4 |
| 20260508080203 | 46 | 240 | 8.7 | 14.8 | 0.00 | 0.02 | 0.00 | 69 | 1004.8 |
| 20260508080105 | 46 | 241 | 6.1 | 14.8 | 0.00 | 0.02 | 0.00 | 69 | 1004.7 |
| 20260508080015 | 46 | 244 | 5.2 | 14.8 | 0.00 | 0.02 | 0.00 | 68 | 1004.4 |
| 20260508075904 | 46 | 251 | 8.7 | 14.8 | 0.00 | 0.02 | 0.00 | 69 | 1004.4 |
| 20260508075705 | 46 | 257 | 3.5 | 13.9 | 0.00 | 0.02 | 0.00 | 69 | 1004.4 |
| 20260508075604 | 46 | 250 | 5.2 | 13.9 | 0.00 | 0.02 | 0.00 | 69 | 1004.3 |
| 20260508075404 | 46 | 262 | 5.2 | 9.6 | 0.00 | 0.02 | 0.00 | 69 | 1004.4 |
| 20260508075308 | 46 | 253 | 4.3 | 9.6 | 0.00 | 0.02 | 0.00 | 69 | 1004.6 |
| 20260508075203 | 46 | 249 | 5.2 | 9.6 | 0.00 | 0.02 | 0.00 | 69 | 1004.4 |
| 20260508075104 | 46 | 253 | 3.5 | 11.3 | 0.00 | 0.02 | 0.00 | 69 | 1004.6 |
| 20260508075005 | 46 | 254 | 5.2 | 11.3 | 0.00 | 0.02 | 0.00 | 69 | 1004.7 |
| 20260508074904 | 47 | 253 | 6.1 | 11.3 | 0.00 | 0.02 | 0.00 | 69 | 1004.6 |
| 20260508074819 | 47 | 252 | 6.1 | 11.3 | 0.00 | 0.02 | 0.00 | 69 | 1004.8 |
| 20260508074804 | 47 | 253 | 6.1 | 11.3 | 0.00 | 0.02 | 0.00 | 69 | 1004.8 |
| 20260508074704 | 47 | 252 | 3.5 | 11.3 | 0.00 | 0.02 | 0.00 | 69 | 1004.9 |
| 20260508074503 | 47 | 261 | 6.1 | 11.3 | 0.00 | 0.02 | 0.00 | 69 | 1005.1 |
| 20260508074418 | 47 | 258 | 3.5 | 12.2 | 0.00 | 0.02 | 0.00 | 69 | 1004.6 |
| 20260508074404 | 47 | 259 | 3.5 | 12.2 | 0.00 | 0.02 | 0.00 | 69 | 1004.6 |
| 20260508074303 | 47 | 261 | 3.5 | 12.2 | 0.00 | 0.02 | 0.00 | 69 | 1004.8 |
| 20260508074103 | 47 | 248 | 5.2 | 13.0 | 0.00 | 0.02 | 0.00 | 69 | 1004.6 |
| 20260508074003 | 47 | 240 | 4.3 | 13.0 | 0.00 | 0.02 | 0.00 | 69 | 1004.8 |
| 20260508073903 | 47 | 233 | 7.0 | 13.0 | 0.00 | 0.02 | 0.00 | 69 | 1004.7 |
| 20260508073803 | 47 | 229 | 7.0 | 13.0 | 0.00 | 0.02 | 0.00 | 69 | 1004.6 |
| 20260508073703 | 47 | 235 | 7.0 | 11.3 | 0.00 | 0.02 | 0.00 | 69 | 1004.9 |
| 20260508073603 | 47 | 239 | 4.3 | 9.6 | 0.00 | 0.02 | 0.00 | 69 | 1004.9 |
| 20260508073503 | 47 | 237 | 5.2 | 12.2 | 0.00 | 0.02 | 0.00 | 69 | 1004.9 |
| 20260508073403 | 47 | 239 | 5.2 | 12.2 | 0.00 | 0.02 | 0.00 | 69 | 1004.8 |
| 20260508073303 | 47 | 243 | 5.2 | 12.2 | 0.00 | 0.02 | 0.00 | 69 | 1004.8 |
| 20260508073204 | 47 | 242 | 5.2 | 13.9 | 0.00 | 0.02 | 0.00 | 69 | 1004.9 |
| 20260508073104 | 47 | 241 | 6.1 | 13.9 | 0.00 | 0.02 | 0.00 | 69 | 1005.0 |
| 20260508073003 | 47 | 249 | 3.5 | 13.9 | 0.00 | 0.02 | 0.00 | 69 | 1004.7 |
| 20260508072905 | 47 | 248 | 7.0 | 13.9 | 0.00 | 0.02 | 0.00 | 68 | 1005.0 |
| 20260508072803 | 47 | 246 | 7.0 | 13.9 | 0.00 | 0.02 | 0.00 | 68 | 1004.8 |
| 20260508072703 | 47 | 241 | 7.8 | 13.9 | 0.00 | 0.02 | 0.00 | 68 | 1004.9 |
| 20260508072505 | 47 | 224 | 7.8 | 13.9 | 0.00 | 0.02 | 0.00 | 68 | 1004.8 |
| 20260508072403 | 47 | 225 | 7.0 | 13.9 | 0.00 | 0.02 | 0.00 | 68 | 1004.8 |
| 20260508072307 | 47 | 229 | 3.5 | 9.6 | 0.00 | 0.02 | 0.00 | 68 | 1004.7 |
| 20260508072203 | 47 | 233 | 6.1 | 12.2 | 0.00 | 0.02 | 0.00 | 68 | 1004.9 |
| 20260508072004 | 47 | 242 | 7.0 | 12.2 | 0.00 | 0.02 | 0.00 | 68 | 1005.1 |
| 20260508071905 | 47 | 244 | 5.2 | 12.2 | 0.00 | 0.02 | 0.00 | 68 | 1004.9 |
| 20260508071803 | 48 | 236 | 5.2 | 12.2 | 0.00 | 0.02 | 0.00 | 67 | 1005.0 |
| 20260508071603 | 48 | 236 | 3.5 | 11.3 | 0.00 | 0.02 | 0.00 | 67 | 1005.0 |
| 20260508071503 | 48 | 238 | 4.3 | 11.3 | 0.00 | 0.02 | 0.00 | 67 | 1004.9 |
| 20260508071416 | 48 | 239 | 7.0 | 11.3 | 0.00 | 0.02 | 0.00 | 67 | 1004.9 |
| 20260508071405 | 48 | 238 | 7.8 | 11.3 | 0.00 | 0.02 | 0.00 | 67 | 1004.8 |
| 20260508071303 | 48 | 241 | 5.2 | 13.0 | 0.00 | 0.02 | 0.00 | 67 | 1004.8 |
| 20260508071105 | 48 | 244 | 6.1 | 13.0 | 0.00 | 0.02 | 0.00 | 67 | 1004.8 |
| 20260508071005 | 48 | 245 | 7.0 | 13.0 | 0.00 | 0.02 | 0.00 | 67 | 1005.0 |
| 20260508070904 | 48 | 246 | 7.0 | 13.0 | 0.00 | 0.02 | 0.00 | 67 | 1004.9 |
| 20260508070804 | 48 | 247 | 7.0 | 13.0 | 0.00 | 0.02 | 0.00 | 67 | 1005.1 |
| 20260508070705 | 48 | 244 | 7.0 | 11.3 | 0.00 | 0.02 | 0.00 | 67 | 1005.2 |
| 20260508070605 | 48 | 243 | 4.3 | 11.3 | 0.00 | 0.02 | 0.00 | 68 | 1005.0 |
| 20260508070504 | 48 | 240 | 5.2 | 11.3 | 0.00 | 0.02 | 0.00 | 68 | 1005.3 |
| 20260508070403 | 48 | 232 | 5.2 | 11.3 | 0.00 | 0.02 | 0.00 | 68 | 1005.1 |
| 20260508070304 | 48 | 234 | 5.2 | 11.3 | 0.00 | 0.02 | 0.00 | 68 | 1005.1 |
| 20260508070204 | 48 | 241 | 7.0 | 11.3 | 0.00 | 0.02 | 0.00 | 68 | 1005.3 |
| 20260508070117 | 48 | 237 | 5.2 | 9.6 | 0.00 | 0.02 | 0.00 | 68 | 1005.5 |
| 20260508070104 | 48 | 235 | 5.2 | 9.6 | 0.00 | 0.02 | 0.00 | 68 | 1005.5 |
| 20260508070004 | 48 | 237 | 4.3 | 9.6 | 0.00 | 0.02 | 0.00 | 68 | 1005.3 |
| 20260508065804 | 48 | 249 | 5.2 | 9.6 | 0.00 | 0.02 | 0.00 | 68 | 1005.0 |
| 20260508065704 | 48 | 245 | 6.1 | 9.6 | 0.00 | 0.02 | 0.00 | 68 | 1005.1 |
| 20260508065504 | 48 | 251 | 7.8 | 9.6 | 0.00 | 0.02 | 0.00 | 69 | 1005.0 |
| 20260508065404 | 48 | 243 | 4.3 | 9.6 | 0.00 | 0.02 | 0.00 | 70 | 1005.0 |
| 20260508065306 | 48 | 233 | 3.5 | 9.6 | 0.00 | 0.02 | 0.00 | 70 | 1005.2 |
| 20260508065215 | 48 | 230 | 3.5 | 9.6 | 0.00 | 0.02 | 0.00 | 70 | 1005.2 |
| 20260508065203 | 48 | 229 | 3.5 | 9.6 | 0.00 | 0.02 | 0.00 | 70 | 1005.2 |
| 20260508065103 | 48 | 230 | 5.2 | 9.6 | 0.00 | 0.02 | 0.00 | 70 | 1005.0 |
| 20260508064903 | 48 | 246 | 3.5 | 9.6 | 0.00 | 0.02 | 0.00 | 70 | 1005.3 |
| 20260508064805 | 48 | 246 | 6.1 | 9.6 | 0.00 | 0.02 | 0.00 | 70 | 1005.4 |
| 20260508064703 | 48 | 246 | 4.3 | 9.6 | 0.00 | 0.02 | 0.00 | 70 | 1005.4 |
| 20260508064603 | 48 | 244 | 5.2 | 9.6 | 0.00 | 0.02 | 0.00 | 70 | 1005.1 |
| 20260508064520 | 48 | 236 | 5.2 | 9.6 | 0.00 | 0.02 | 0.00 | 70 | 1005.3 |
| 20260508064407 | 48 | 210 | 5.2 | 9.6 | 0.00 | 0.02 | 0.00 | 70 | 1005.3 |
| 20260508064216 | 48 | 204 | 3.5 | 9.6 | 0.00 | 0.02 | 0.00 | 71 | 1005.3 |
| 20260508064203 | 48 | 204 | 3.5 | 9.6 | 0.00 | 0.02 | 0.00 | 71 | 1005.2 |
| 20260508064104 | 48 | 207 | 2.6 | 12.2 | 0.00 | 0.02 | 0.00 | 71 | 1005.2 |
| 20260508063903 | 48 | 231 | 6.1 | 12.2 | 0.00 | 0.02 | 0.00 | 71 | 1005.3 |
| 20260508063803 | 48 | 239 | 5.2 | 13.0 | 0.00 | 0.02 | 0.00 | 71 | 1005.4 |
| 20260508063703 | 48 | 244 | 5.2 | 13.0 | 0.00 | 0.02 | 0.00 | 71 | 1005.2 |
| 20260508063603 | 48 | 248 | 7.0 | 13.0 | 0.00 | 0.02 | 0.00 | 71 | 1005.4 |
| 20260508063503 | 48 | 251 | 5.2 | 13.0 | 0.00 | 0.02 | 0.00 | 71 | 1005.2 |
| 20260508063403 | 48 | 246 | 7.0 | 13.0 | 0.00 | 0.02 | 0.00 | 71 | 1005.2 |
| 20260508063304 | 48 | 244 | 7.0 | 13.0 | 0.00 | 0.02 | 0.00 | 71 | 1005.3 |
| 20260508063205 | 48 | 247 | 7.0 | 13.0 | 0.00 | 0.02 | 0.00 | 71 | 1005.2 |
| 20260508063104 | 48 | 254 | 3.5 | 7.0 | 0.00 | 0.02 | 0.00 | 71 | 1005.3 |
| 20260508063004 | 48 | 257 | 2.6 | 9.6 | 0.00 | 0.02 | 0.00 | 71 | 1005.3 |
| 20260508062903 | 48 | 262 | 4.3 | 9.6 | 0.00 | 0.02 | 0.00 | 71 | 1005.2 |
| 20260508062805 | 48 | 259 | 5.2 | 9.6 | 0.00 | 0.02 | 0.00 | 71 | 1005.1 |
| 20260508062706 | 48 | 260 | 3.5 | 9.6 | 0.00 | 0.02 | 0.00 | 71 | 1005.2 |
| 20260508062605 | 49 | 250 | 4.3 | 9.6 | 0.00 | 0.02 | 0.00 | 71 | 1005.5 |
| 20260508062504 | 49 | 246 | 6.1 | 9.6 | 0.00 | 0.02 | 0.00 | 71 | 1005.3 |
| 20260508062403 | 49 | 243 | 4.3 | 9.6 | 0.00 | 0.02 | 0.00 | 71 | 1005.3 |
| 20260508062319 | 49 | 246 | 6.1 | 9.6 | 0.00 | 0.02 | 0.00 | 71 | 1005.3 |
| 20260508062306 | 49 | 248 | 6.1 | 9.6 | 0.00 | 0.02 | 0.00 | 71 | 1005.3 |
| 20260508062217 | 49 | 246 | 7.0 | 9.6 | 0.00 | 0.02 | 0.00 | 71 | 1005.4 |
| 20260508062204 | 49 | 246 | 5.2 | 9.6 | 0.00 | 0.02 | 0.00 | 71 | 1005.4 |
| 20260508061909 | 49 | 242 | 6.1 | 9.6 | 0.00 | 0.02 | 0.00 | 71 | 1005.4 |
| 20260508061804 | 49 | 233 | 3.5 | 7.8 | 0.00 | 0.02 | 0.00 | 71 | 1005.2 |
| 20260508061704 | 49 | 235 | 3.5 | 7.8 | 0.00 | 0.02 | 0.00 | 71 | 1005.5 |
| 20260508061619 | 49 | 235 | 3.5 | 7.8 | 0.00 | 0.02 | 0.00 | 71 | 1005.4 |
| 20260508061604 | 49 | 234 | 3.5 | 7.8 | 0.00 | 0.02 | 0.00 | 71 | 1005.4 |
| 20260508061504 | 49 | 234 | 3.5 | 9.6 | 0.00 | 0.02 | 0.00 | 71 | 1005.1 |
| 20260508061204 | 49 | 257 | 4.3 | 9.6 | 0.00 | 0.02 | 0.00 | 71 | 1005.5 |
| 20260508061104 | 49 | 261 | 4.3 | 9.6 | 0.00 | 0.02 | 0.00 | 71 | 1005.4 |
| 20260508061004 | 49 | 260 | 3.5 | 9.6 | 0.00 | 0.02 | 0.00 | 72 | 1005.7 |
| 20260508060903 | 49 | 259 | 2.6 | 9.6 | 0.00 | 0.02 | 0.00 | 72 | 1005.4 |
| 20260508060804 | 49 | 260 | 2.6 | 9.6 | 0.00 | 0.02 | 0.00 | 72 | 1005.3 |
| 20260508060703 | 49 | 254 | 6.1 | 9.6 | 0.00 | 0.02 | 0.00 | 72 | 1005.6 |
| 20260508060615 | 49 | 245 | 6.1 | 9.6 | 0.00 | 0.02 | 0.00 | 72 | 1005.6 |
| 20260508060604 | 49 | 243 | 3.5 | 7.8 | 0.00 | 0.02 | 0.00 | 72 | 1005.5 |
| 20260508060504 | 49 | 252 | 3.5 | 7.8 | 0.00 | 0.02 | 0.00 | 72 | 1005.7 |
| 20260508060303 | 49 | 250 | 6.1 | 9.6 | 0.00 | 0.02 | 0.00 | 72 | 1005.6 |
| 20260508060214 | 49 | 250 | 3.5 | 9.6 | 0.00 | 0.02 | 0.00 | 72 | 1005.4 |
| 20260508060204 | 49 | 252 | 3.5 | 9.6 | 0.00 | 0.02 | 0.00 | 72 | 1005.6 |
| 20260508060103 | 49 | 255 | 4.3 | 9.6 | 0.00 | 0.02 | 0.00 | 72 | 1005.4 |
| 20260508055904 | 49 | 245 | 3.5 | 9.6 | 0.00 | 0.02 | 0.00 | 72 | 1005.3 |
| 20260508055805 | 49 | 249 | 6.1 | 9.6 | 0.00 | 0.02 | 0.00 | 72 | 1005.5 |
| 20260508055703 | 49 | 248 | 6.1 | 9.6 | 0.00 | 0.02 | 0.00 | 72 | 1005.5 |
| 20260508055603 | 49 | 251 | 3.5 | 9.6 | 0.00 | 0.02 | 0.00 | 72 | 1005.4 |
| 20260508055504 | 49 | 254 | 3.5 | 9.6 | 0.00 | 0.02 | 0.00 | 72 | 1005.5 |
| 20260508055405 | 49 | 251 | 5.2 | 9.6 | 0.00 | 0.02 | 0.00 | 72 | 1005.5 |
| 20260508055306 | 49 | 251 | 6.1 | 9.6 | 0.00 | 0.02 | 0.00 | 71 | 1005.4 |
| 20260508055203 | 50 | 253 | 7.0 | 9.6 | 0.00 | 0.02 | 0.00 | 71 | 1005.2 |
| 20260508055104 | 50 | 253 | 5.2 | 9.6 | 0.00 | 0.02 | 0.00 | 71 | 1005.5 |
| 20260508055003 | 50 | 251 | 7.0 | 9.6 | 0.00 | 0.02 | 0.00 | 71 | 1005.2 |
| 20260508054904 | 50 | 260 | 4.3 | 9.6 | 0.00 | 0.02 | 0.00 | 72 | 1005.4 |
| 20260508054804 | 50 | 257 | 3.5 | 9.6 | 0.00 | 0.02 | 0.00 | 71 | 1005.5 |
| 20260508054704 | 50 | 256 | 4.3 | 9.6 | 0.00 | 0.02 | 0.00 | 71 | 1005.3 |
| 20260508054604 | 50 | 250 | 4.3 | 9.6 | 0.00 | 0.02 | 0.00 | 72 | 1005.2 |
| 20260508054503 | 50 | 250 | 4.3 | 9.6 | 0.00 | 0.02 | 0.00 | 72 | 1005.5 |
| 20260508054404 | 50 | 244 | 3.5 | 9.6 | 0.00 | 0.02 | 0.00 | 72 | 1005.3 |
| 20260508054303 | 50 | 242 | 6.1 | 11.3 | 0.00 | 0.02 | 0.00 | 71 | 1005.6 |
| 20260508054205 | 50 | 233 | 3.5 | 11.3 | 0.00 | 0.02 | 0.00 | 72 | 1005.4 |
| 20260508054003 | 50 | 229 | 5.2 | 11.3 | 0.00 | 0.02 | 0.00 | 71 | 1005.4 |
| 20260508053903 | 50 | 228 | 4.3 | 11.3 | 0.00 | 0.02 | 0.00 | 71 | 1005.3 |
| 20260508053804 | 50 | 226 | 4.3 | 11.3 | 0.00 | 0.02 | 0.00 | 71 | 1005.2 |
| 20260508053710 | 50 | 235 | 4.3 | 11.3 | 0.00 | 0.02 | 0.00 | 71 | 1005.1 |
| 20260508053605 | 50 | 237 | 6.1 | 11.3 | 0.00 | 0.02 | 0.00 | 71 | 1005.3 |
| 20260508053503 | 50 | 238 | 5.2 | 11.3 | 0.00 | 0.04 | 0.00 | 71 | 1005.1 |
| 20260508053415 | 50 | 240 | 5.2 | 11.3 | 0.00 | 0.05 | 0.00 | 71 | 1005.3 |
| 20260508053403 | 50 | 240 | 4.3 | 11.3 | 0.00 | 0.05 | 0.00 | 71 | 1005.3 |
| 20260508053314 | 50 | 240 | 7.8 | 11.3 | 0.00 | 0.07 | 0.00 | 71 | 1005.1 |
| 20260508053305 | 50 | 237 | 7.8 | 11.3 | 0.00 | 0.07 | 0.00 | 71 | 1005.1 |
| 20260508053217 | 50 | 235 | 6.1 | 12.2 | 0.00 | 0.08 | 0.00 | 71 | 1005.2 |
| 20260508052903 | 50 | 234 | 3.5 | 13.9 | 0.00 | 0.17 | 0.00 | 72 | 1005.2 |
| 20260508052803 | 50 | 232 | 4.3 | 13.9 | 0.00 | 0.17 | 0.00 | 72 | 1005.3 |
| 20260508052703 | 50 | 229 | 7.0 | 13.9 | 0.00 | 0.17 | 0.00 | 72 | 1005.2 |
| 20260508052603 | 50 | 229 | 4.3 | 11.3 | 0.00 | 0.17 | 0.00 | 72 | 1005.4 |
| 20260508052517 | 50 | 230 | 6.1 | 13.9 | 0.00 | 0.17 | 0.00 | 72 | 1005.0 |
| 20260508052403 | 50 | 234 | 4.3 | 13.9 | 0.00 | 0.17 | 0.00 | 72 | 1005.0 |
| 20260508052204 | 50 | 237 | 5.2 | 13.9 | 0.00 | 0.17 | 0.00 | 72 | 1005.2 |
| 20260508052105 | 51 | 242 | 5.2 | 13.9 | 0.00 | 0.17 | 0.00 | 72 | 1004.9 |
| 20260508052003 | 50 | 245 | 7.0 | 13.9 | 0.00 | 0.17 | 0.00 | 72 | 1005.2 |
| 20260508051903 | 51 | 245 | 4.3 | 11.3 | 0.00 | 0.17 | 0.00 | 72 | 1005.4 |
| 20260508051823 | 50 | 245 | 4.3 | 11.3 | 0.00 | 0.18 | 0.00 | 72 | 1005.2 |
| 20260508051804 | 50 | 248 | 6.1 | 11.3 | 0.00 | 0.18 | 0.00 | 72 | 1004.9 |
| 20260508051705 | 51 | 259 | 4.3 | 11.3 | 0.00 | 0.18 | 0.00 | 72 | 1005.3 |
| 20260508051505 | 51 | 258 | 4.3 | 11.3 | 0.00 | 0.19 | 0.00 | 72 | 1005.1 |
| 20260508051404 | 51 | 253 | 3.5 | 9.6 | 0.00 | 0.19 | 0.00 | 72 | 1005.0 |
| 20260508051315 | 51 | 254 | 4.3 | 9.6 | 0.00 | 0.19 | 0.00 | 72 | 1005.1 |
| 20260508051303 | 51 | 250 | 4.3 | 9.6 | 0.00 | 0.19 | 0.00 | 72 | 1005.1 |
| 20260508051204 | 51 | 245 | 3.5 | 9.6 | 0.00 | 0.19 | 0.00 | 72 | 1004.9 |
| 20260508051004 | 51 | 234 | 3.5 | 9.6 | 0.00 | 0.19 | 0.00 | 72 | 1005.1 |
| 20260508050905 | 51 | 236 | 3.5 | 9.6 | 0.00 | 0.19 | 0.00 | 72 | 1005.0 |
| 20260508050805 | 51 | 248 | 7.0 | 9.6 | 0.00 | 0.19 | 0.00 | 72 | 1004.9 |
| 20260508050705 | 51 | 246 | 6.1 | 9.6 | 0.00 | 0.19 | 0.00 | 72 | 1004.9 |
| 20260508050603 | 51 | 247 | 4.3 | 7.8 | 0.00 | 0.19 | 0.00 | 72 | 1004.9 |
| 20260508050504 | 51 | 261 | 4.3 | 9.6 | 0.00 | 0.19 | 0.00 | 72 | 1004.8 |
| 20260508050403 | 51 | 263 | 4.3 | 9.6 | 0.00 | 0.19 | 0.00 | 72 | 1004.7 |
| 20260508050303 | 51 | 254 | 4.3 | 9.6 | 0.00 | 0.19 | 0.00 | 72 | 1004.7 |
| 20260508050204 | 51 | 249 | 2.6 | 9.6 | 0.00 | 0.19 | 0.00 | 72 | 1005.0 |
| 20260508050113 | 51 | 245 | 3.5 | 9.6 | 0.00 | 0.19 | 0.00 | 72 | 1004.8 |
| 20260508050104 | 51 | 240 | 3.5 | 9.6 | 0.00 | 0.19 | 0.00 | 72 | 1004.8 |
| 20260508050005 | 51 | 236 | 4.3 | 9.6 | 0.00 | 0.19 | 0.00 | 72 | 1004.9 |
| 20260508045704 | 51 | 242 | 7.0 | 12.2 | 0.00 | 0.19 | 0.00 | 71 | 1004.9 |
| 20260508045605 | 51 | 237 | 5.2 | 12.2 | 0.00 | 0.19 | 0.00 | 71 | 1004.8 |
| 20260508045505 | 51 | 237 | 6.1 | 12.2 | 0.00 | 0.19 | 0.00 | 71 | 1004.9 |
| 20260508045403 | 51 | 233 | 5.2 | 11.3 | 0.00 | 0.19 | 0.00 | 71 | 1004.9 |
| 20260508045317 | 51 | 226 | 4.3 | 11.3 | 0.00 | 0.19 | 0.00 | 72 | 1005.2 |
| 20260508045306 | 51 | 225 | 4.3 | 11.3 | 0.00 | 0.19 | 0.00 | 72 | 1005.2 |
| 20260508045216 | 51 | 228 | 5.2 | 11.3 | 0.00 | 0.19 | 0.00 | 72 | 1005.0 |
| 20260508045203 | 51 | 231 | 5.2 | 11.3 | 0.00 | 0.19 | 0.00 | 72 | 1005.0 |
| 20260508044905 | 51 | 246 | 4.3 | 9.6 | 0.00 | 0.19 | 0.00 | 72 | 1004.8 |
| 20260508044803 | 51 | 250 | 4.3 | 9.6 | 0.00 | 0.19 | 0.00 | 72 | 1004.9 |
| 20260508044706 | 51 | 252 | 5.2 | 9.6 | 0.00 | 0.19 | 0.00 | 72 | 1004.9 |
| 20260508044603 | 51 | 248 | 3.5 | 7.8 | 0.00 | 0.19 | 0.00 | 72 | 1005.0 |
| 20260508044504 | 51 | 246 | 4.3 | 7.8 | 0.00 | 0.19 | 0.00 | 72 | 1004.9 |
| 20260508044404 | 51 | 242 | 4.3 | 7.8 | 0.00 | 0.19 | 0.00 | 72 | 1004.9 |
| 20260508044304 | 51 | 244 | 3.5 | 9.6 | 0.00 | 0.19 | 0.00 | 72 | 1005.0 |
| 20260508044203 | 51 | 240 | 6.1 | 9.6 | 0.00 | 0.19 | 0.00 | 72 | 1005.1 |
| 20260508044105 | 51 | 237 | 4.3 | 9.6 | 0.00 | 0.19 | 0.00 | 72 | 1005.1 |
| 20260508044005 | 51 | 236 | 4.3 | 9.6 | 0.00 | 0.19 | 0.00 | 72 | 1005.0 |
| 20260508043903 | 51 | 234 | 3.5 | 9.6 | 0.00 | 0.19 | 0.00 | 72 | 1005.3 |
| 20260508043803 | 51 | 241 | 4.3 | 11.3 | 0.00 | 0.19 | 0.00 | 72 | 1005.2 |
| 20260508043704 | 51 | 241 | 4.3 | 11.3 | 0.00 | 0.19 | 0.00 | 72 | 1005.0 |
| 20260508043605 | 51 | 243 | 3.5 | 11.3 | 0.00 | 0.19 | 0.00 | 72 | 1005.1 |
| 20260508043404 | 51 | 243 | 5.2 | 11.3 | 0.00 | 0.20 | 0.00 | 72 | 1005.1 |
| 20260508043303 | 51 | 232 | 5.2 | 9.6 | 0.00 | 0.20 | 0.00 | 72 | 1005.2 |
| 20260508043203 | 51 | 231 | 4.3 | 9.6 | 0.00 | 0.20 | 0.00 | 72 | 1004.9 |
| 20260508043105 | 51 | 235 | 5.2 | 9.6 | 0.00 | 0.22 | 0.00 | 72 | 1004.8 |
| 20260508043015 | 51 | 246 | 6.1 | 9.6 | 0.00 | 0.24 | 0.00 | 72 | 1004.9 |
| 20260508042903 | 51 | 248 | 5.2 | 11.3 | 0.00 | 0.24 | 0.00 | 72 | 1005.1 |
| 20260508042706 | 51 | 251 | 4.3 | 11.3 | 0.00 | 0.24 | 0.00 | 71 | 1005.1 |
| 20260508042603 | 51 | 242 | 6.1 | 11.3 | 0.00 | 0.24 | 0.00 | 71 | 1005.1 |
| 20260508042504 | 51 | 231 | 6.1 | 11.3 | 0.00 | 0.24 | 0.00 | 71 | 1005.2 |
| 20260508042404 | 51 | 228 | 4.3 | 9.6 | 0.00 | 0.24 | 0.00 | 71 | 1004.9 |
| 20260508042307 | 51 | 229 | 4.3 | 9.6 | 0.00 | 0.24 | 0.00 | 71 | 1005.1 |
| 20260508042204 | 51 | 239 | 3.5 | 12.2 | 0.00 | 0.24 | 0.00 | 71 | 1005.0 |
| 20260508042105 | 51 | 246 | 3.5 | 12.2 | 0.00 | 0.24 | 0.00 | 71 | 1005.0 |
| 20260508042003 | 51 | 244 | 4.3 | 12.2 | 0.00 | 0.24 | 0.00 | 72 | 1004.9 |
| 20260508041904 | 51 | 243 | 4.3 | 12.2 | 0.00 | 0.27 | 0.00 | 71 | 1004.9 |
| 20260508041804 | 52 | 241 | 4.3 | 12.2 | 0.00 | 0.30 | 0.00 | 71 | 1004.9 |
| 20260508041705 | 52 | 232 | 3.5 | 12.2 | 0.00 | 0.32 | 0.00 | 71 | 1004.8 |
| 20260508041604 | 52 | 227 | 5.2 | 12.2 | 0.00 | 0.33 | 0.00 | 71 | 1004.9 |
| 20260508041505 | 52 | 229 | 4.3 | 12.2 | 0.00 | 0.37 | 0.00 | 71 | 1004.8 |
| 20260508041404 | 52 | 233 | 4.3 | 12.2 | 0.00 | 0.39 | 0.00 | 71 | 1005.0 |
| 20260508041304 | 52 | 233 | 5.2 | 12.2 | 0.00 | 0.40 | 0.00 | 71 | 1005.0 |
| 20260508041206 | 52 | 225 | 7.0 | 12.2 | 0.00 | 0.43 | 0.00 | 71 | 1005.0 |
| 20260508040907 | 52 | 240 | 7.0 | 13.9 | 0.00 | 0.47 | 0.00 | 71 | 1005.1 |
| 20260508040705 | 52 | 253 | 3.5 | 13.9 | 0.00 | 0.52 | 0.00 | 71 | 1005.0 |
| 20260508040604 | 52 | 253 | 5.2 | 13.9 | 0.00 | 0.53 | 0.00 | 71 | 1005.2 |
| 20260508040504 | 52 | 261 | 7.0 | 13.9 | 0.00 | 0.56 | 0.00 | 71 | 1004.9 |
| 20260508040403 | 52 | 264 | 5.2 | 9.6 | 0.00 | 0.56 | 0.00 | 71 | 1005.1 |
| 20260508040303 | 52 | 255 | 5.2 | 9.6 | 0.00 | 0.57 | 0.00 | 71 | 1005.2 |
| 20260508040205 | 52 | 250 | 4.3 | 9.6 | 0.00 | 0.57 | 0.00 | 71 | 1005.2 |
| 20260508040114 | 52 | 253 | 3.5 | 9.6 | 0.00 | 0.58 | 0.00 | 72 | 1005.0 |
| 20260508040004 | 52 | 240 | 6.1 | 9.6 | 0.00 | 0.58 | 0.00 | 72 | 1004.9 |
| 20260508035803 | 52 | 242 | 3.5 | 9.6 | 0.00 | 0.58 | 0.00 | 72 | 1005.1 |
| 20260508035719 | 52 | 246 | 3.5 | 9.6 | 0.00 | 0.59 | 0.00 | 72 | 1004.9 |
| 20260508035705 | 52 | 247 | 3.5 | 9.6 | 0.00 | 0.59 | 0.00 | 72 | 1004.9 |
| 20260508035603 | 52 | 252 | 5.2 | 9.6 | 0.00 | 0.60 | 0.00 | 72 | 1005.3 |
| 20260508035403 | 52 | 260 | 3.5 | 9.6 | 0.00 | 0.61 | 0.00 | 72 | 1005.1 |
| 20260508035306 | 52 | 256 | 5.2 | 9.6 | 0.00 | 0.63 | 0.00 | 72 | 1004.9 |
| 20260508035206 | 52 | 244 | 5.2 | 7.0 | 0.00 | 0.64 | 0.00 | 72 | 1005.1 |
| 20260508035103 | 52 | 247 | 2.6 | 7.0 | 0.00 | 0.66 | 0.00 | 72 | 1004.9 |
| 20260508035003 | 52 | 252 | 3.5 | 7.0 | 0.00 | 0.66 | 0.00 | 72 | 1005.1 |
| 20260508034903 | 52 | 247 | 3.5 | 7.0 | 0.00 | 0.67 | 0.00 | 72 | 1005.0 |
| 20260508034804 | 52 | 255 | 4.3 | 9.6 | 0.00 | 0.67 | 0.00 | 72 | 1004.8 |
| 20260508034704 | 52 | 258 | 3.5 | 9.6 | 0.00 | 0.67 | 0.00 | 72 | 1005.0 |
| 20260508034603 | 52 | 257 | 3.5 | 9.6 | 0.00 | 0.67 | 0.00 | 72 | 1004.7 |
| 20260508034503 | 52 | 264 | 3.5 | 9.6 | 0.00 | 0.69 | 0.00 | 71 | 1004.8 |
| 20260508034415 | 52 | 265 | 3.5 | 9.6 | 0.00 | 0.69 | 0.00 | 71 | 1004.7 |
| 20260508034303 | 52 | 261 | 5.2 | 9.6 | 0.00 | 0.73 | 0.00 | 71 | 1004.8 |
| 20260508034103 | 53 | 254 | 7.0 | 11.3 | 0.00 | 0.76 | 0.00 | 71 | 1004.6 |
| 20260508034005 | 53 | 244 | 3.5 | 11.3 | 0.00 | 0.76 | 0.00 | 72 | 1004.8 |
| 20260508033904 | 53 | 246 | 4.3 | 11.3 | 0.00 | 0.78 | 0.00 | 71 | 1004.9 |
| 20260508033805 | 53 | 242 | 6.1 | 11.3 | 0.00 | 0.79 | 0.00 | 71 | 1004.7 |
| 20260508033703 | 53 | 242 | 5.2 | 9.6 | 0.00 | 0.80 | 0.00 | 72 | 1004.6 |
| 20260508033605 | 53 | 235 | 3.5 | 9.6 | 0.00 | 0.80 | 0.00 | 72 | 1004.6 |
| 20260508033503 | 53 | 236 | 4.3 | 9.6 | 0.00 | 0.81 | 0.00 | 72 | 1004.7 |
| 20260508033403 | 53 | 223 | 6.1 | 9.6 | 0.00 | 0.81 | 0.00 | 72 | 1004.8 |
| 20260508033305 | 53 | 229 | 3.5 | 7.8 | 0.00 | 0.81 | 0.00 | 72 | 1004.8 |
| 20260508033205 | 53 | 230 | 3.5 | 7.8 | 0.00 | 0.81 | 0.00 | 72 | 1004.7 |
| 20260508033103 | 53 | 224 | 4.3 | 9.6 | 0.00 | 0.81 | 0.00 | 72 | 1004.6 |
| 20260508033016 | 53 | 220 | 5.2 | 9.6 | 0.00 | 0.81 | 0.00 | 72 | 1004.9 |
| 20260508033004 | 53 | 218 | 5.2 | 9.6 | 0.00 | 0.81 | 0.00 | 72 | 1004.6 |
| 20260508032903 | 53 | 229 | 3.5 | 9.6 | 0.00 | 0.81 | 0.00 | 72 | 1004.8 |
| 20260508032705 | 53 | 232 | 6.1 | 9.6 | 0.00 | 0.81 | 0.00 | 72 | 1004.7 |
| 20260508032605 | 53 | 248 | 3.5 | 9.6 | 0.00 | 0.81 | 0.00 | 72 | 1004.8 |
| 20260508032506 | 53 | 250 | 3.5 | 9.6 | 0.00 | 0.81 | 0.00 | 72 | 1004.7 |
| 20260508032417 | 53 | 253 | 3.5 | 9.6 | 0.00 | 0.81 | 0.00 | 72 | 1004.6 |
| 20260508032403 | 53 | 254 | 3.5 | 9.6 | 0.00 | 0.81 | 0.00 | 72 | 1004.6 |
| 20260508032306 | 53 | 253 | 3.5 | 9.6 | 0.00 | 0.81 | 0.00 | 72 | 1004.4 |
| 20260508032004 | 53 | 246 | 3.5 | 9.6 | 0.00 | 0.81 | 0.00 | 72 | 1004.5 |
| 20260508031903 | 53 | 244 | 2.6 | 7.0 | 0.00 | 0.81 | 0.00 | 72 | 1004.6 |
| 20260508031804 | 53 | 244 | 2.6 | 9.6 | 0.00 | 0.81 | 0.00 | 72 | 1004.5 |
| 20260508031710 | 53 | 254 | 3.5 | 9.6 | 0.00 | 0.81 | 0.00 | 72 | 1004.5 |
| 20260508031604 | 53 | 256 | 3.5 | 9.6 | 0.00 | 0.81 | 0.00 | 72 | 1004.4 |
| 20260508031505 | 53 | 250 | 3.5 | 9.6 | 0.00 | 0.81 | 0.00 | 72 | 1004.4 |
| 20260508031403 | 53 | 248 | 2.6 | 9.6 | 0.00 | 0.81 | 0.00 | 72 | 1004.4 |
| 20260508031305 | 53 | 245 | 4.3 | 9.6 | 0.00 | 0.81 | 0.00 | 72 | 1004.3 |
| 20260508031207 | 53 | 235 | 4.3 | 7.8 | 0.00 | 0.81 | 0.00 | 72 | 1004.3 |
| 20260508031105 | 53 | 233 | 3.5 | 7.8 | 0.00 | 0.81 | 0.00 | 72 | 1004.2 |
| 20260508031018 | 53 | 234 | 4.3 | 7.8 | 0.00 | 0.81 | 0.00 | 72 | 1004.0 |
| 20260508031006 | 53 | 235 | 3.5 | 7.8 | 0.00 | 0.81 | 0.00 | 72 | 1004.3 |
| 20260508030705 | 53 | 230 | 4.3 | 7.8 | 0.00 | 0.81 | 0.00 | 72 | 1004.3 |
| 20260508030617 | 53 | 226 | 3.5 | 7.8 | 0.00 | 0.81 | 0.00 | 72 | 1004.3 |
| 20260508030604 | 53 | 223 | 3.5 | 7.8 | 0.00 | 0.81 | 0.00 | 72 | 1004.3 |
| 20260508030504 | 53 | 224 | 3.5 | 7.0 | 0.00 | 0.81 | 0.00 | 72 | 1004.2 |
| 20260508030414 | 53 | 228 | 3.5 | 7.0 | 0.00 | 0.81 | 0.00 | 72 | 1004.2 |
| 20260508030304 | 53 | 235 | 2.6 | 7.0 | 0.00 | 0.81 | 0.00 | 72 | 1004.2 |
| 20260508030103 | 53 | 225 | 5.2 | 7.0 | 0.00 | 0.81 | 0.00 | 72 | 1004.3 |
| 20260508030007 | 54 | 226 | 2.6 | 7.0 | 0.00 | 0.81 | 0.00 | 72 | 1004.3 |
| 20260508025904 | 54 | 225 | 1.7 | 7.0 | 0.00 | 0.81 | 0.81 | 72 | 1004.3 |
| 20260508025804 | 54 | 224 | 3.5 | 7.0 | 0.00 | 0.81 | 0.81 | 71 | 1004.3 |
| 20260508025705 | 54 | 231 | 3.5 | 9.6 | 0.00 | 0.81 | 0.81 | 71 | 1003.9 |
| 20260508025605 | 54 | 233 | 3.5 | 9.6 | 0.00 | 0.81 | 0.81 | 71 | 1004.2 |
| 20260508025504 | 54 | 236 | 3.5 | 9.6 | 0.00 | 0.81 | 0.81 | 71 | 1004.1 |
| 20260508025405 | 54 | 236 | 3.5 | 9.6 | 0.00 | 0.81 | 0.81 | 71 | 1004.2 |
| 20260508025306 | 54 | 238 | 4.3 | 9.6 | 0.00 | 0.81 | 0.81 | 71 | 1004.1 |
| 20260508025204 | 54 | 233 | 4.3 | 9.6 | 0.00 | 0.81 | 0.81 | 71 | 1004.1 |
| 20260508025105 | 54 | 226 | 1.7 | 9.6 | 0.00 | 0.81 | 0.81 | 72 | 1004.2 |
| 20260508025004 | 54 | 231 | 5.2 | 9.6 | 0.00 | 0.81 | 0.81 | 71 | 1004.1 |
| 20260508024905 | 54 | 237 | 3.5 | 9.6 | 0.00 | 0.81 | 0.81 | 72 | 1004.2 |
| 20260508024803 | 54 | 230 | 5.2 | 7.8 | 0.00 | 0.81 | 0.81 | 72 | 1004.1 |
| 20260508024703 | 54 | 240 | 3.5 | 7.8 | 0.00 | 0.81 | 0.81 | 72 | 1004.1 |
| 20260508024619 | 54 | 247 | 3.5 | 7.8 | 0.00 | 0.81 | 0.81 | 72 | 1004.1 |
| 20260508024604 | 54 | 251 | 3.5 | 9.6 | 0.00 | 0.81 | 0.81 | 71 | 1003.9 |
| 20260508024503 | 54 | 252 | 4.3 | 9.6 | 0.00 | 0.81 | 0.81 | 71 | 1004.1 |
| 20260508024306 | 54 | 247 | 5.2 | 9.6 | 0.00 | 0.81 | 0.81 | 71 | 1003.9 |
| 20260508024203 | 54 | 243 | 6.1 | 9.6 | 0.00 | 0.81 | 0.81 | 71 | 1003.9 |
| 20260508024103 | 54 | 236 | 4.3 | 11.3 | 0.00 | 0.81 | 0.81 | 71 | 1004.3 |
| 20260508024003 | 54 | 228 | 3.5 | 11.3 | 0.00 | 0.81 | 0.81 | 71 | 1004.1 |
| 20260508023905 | 54 | 230 | 3.5 | 11.3 | 0.00 | 0.81 | 0.81 | 71 | 1004.2 |
| 20260508023807 | 54 | 234 | 3.5 | 11.3 | 0.00 | 0.81 | 0.81 | 71 | 1004.2 |
| 20260508023716 | 54 | 235 | 6.1 | 11.3 | 0.00 | 0.81 | 0.81 | 71 | 1003.9 |
| 20260508023703 | 54 | 236 | 6.1 | 11.3 | 0.00 | 0.81 | 0.81 | 71 | 1003.9 |
| 20260508023604 | 54 | 241 | 6.1 | 11.3 | 0.00 | 0.81 | 0.81 | 71 | 1003.9 |
| 20260508023404 | 54 | 244 | 7.0 | 9.6 | 0.00 | 0.81 | 0.81 | 71 | 1003.9 |
| 20260508023315 | 54 | 243 | 5.2 | 9.6 | 0.00 | 0.81 | 0.81 | 71 | 1004.0 |
| 20260508023305 | 54 | 242 | 5.2 | 9.6 | 0.00 | 0.81 | 0.81 | 71 | 1004.0 |
| 20260508023204 | 54 | 241 | 7.0 | 9.6 | 0.00 | 0.81 | 0.81 | 71 | 1004.2 |
| 20260508023004 | 54 | 238 | 5.2 | 7.8 | 0.00 | 0.81 | 0.81 | 72 | 1003.7 |
| 20260508022906 | 54 | 236 | 3.5 | 7.8 | 0.00 | 0.81 | 0.81 | 72 | 1004.1 |
| 20260508022803 | 54 | 238 | 3.5 | 7.8 | 0.00 | 0.81 | 0.81 | 72 | 1003.9 |
| 20260508022704 | 54 | 239 | 4.3 | 7.8 | 0.00 | 0.81 | 0.81 | 72 | 1004.0 |
| 20260508022605 | 54 | 238 | 1.7 | 7.8 | 0.00 | 0.81 | 0.81 | 72 | 1004.0 |
| 20260508022504 | 54 | 234 | 3.5 | 7.8 | 0.00 | 0.81 | 0.81 | 71 | 1003.6 |
| 20260508022405 | 54 | 233 | 4.3 | 7.8 | 0.00 | 0.81 | 0.81 | 71 | 1003.8 |
| 20260508022307 | 54 | 234 | 2.6 | 7.8 | 0.00 | 0.81 | 0.81 | 71 | 1003.5 |
| 20260508022105 | 54 | 236 | 2.6 | 11.3 | 0.00 | 0.81 | 0.81 | 71 | 1004.0 |
| 20260508022017 | 54 | 244 | 3.5 | 11.3 | 0.00 | 0.81 | 0.81 | 71 | 1003.6 |
| 20260508022004 | 54 | 248 | 3.5 | 11.3 | 0.00 | 0.81 | 0.81 | 71 | 1003.6 |
| 20260508021907 | 54 | 250 | 3.5 | 11.3 | 0.00 | 0.81 | 0.81 | 71 | 1003.8 |
| 20260508021704 | 55 | 246 | 5.2 | 11.3 | 0.00 | 0.81 | 0.81 | 71 | 1003.9 |
| 20260508021604 | 55 | 252 | 3.5 | 7.8 | 0.00 | 0.81 | 0.81 | 71 | 1003.7 |
| 20260508021504 | 55 | 248 | 4.3 | 7.8 | 0.00 | 0.81 | 0.81 | 71 | 1003.9 |
| 20260508021404 | 55 | 239 | 4.3 | 7.8 | 0.00 | 0.81 | 0.81 | 71 | 1003.9 |
| 20260508021208 | 55 | 251 | 3.5 | 9.6 | 0.00 | 0.81 | 0.81 | 71 | 1004.0 |
| 20260508021104 | 55 | 248 | 1.7 | 9.6 | 0.00 | 0.81 | 0.81 | 71 | 1003.9 |
| 20260508021013 | 55 | 242 | 3.5 | 9.6 | 0.00 | 0.81 | 0.81 | 70 | 1003.9 |
| 20260508020917 | 55 | 244 | 5.2 | 9.6 | 0.00 | 0.81 | 0.81 | 70 | 1004.0 |
| 20260508020906 | 55 | 242 | 5.2 | 9.6 | 0.00 | 0.81 | 0.81 | 70 | 1004.0 |
| 20260508020604 | 55 | 240 | 6.1 | 9.6 | 0.00 | 0.81 | 0.81 | 70 | 1003.9 |
| 20260508020504 | 55 | 243 | 3.5 | 9.6 | 0.00 | 0.81 | 0.81 | 70 | 1003.9 |
| 20260508020407 | 55 | 251 | 5.2 | 9.6 | 0.00 | 0.81 | 0.81 | 70 | 1003.9 |
| 20260508020306 | 55 | 255 | 4.3 | 9.6 | 0.00 | 0.81 | 0.81 | 70 | 1004.0 |
| 20260508020203 | 55 | 250 | 4.3 | 7.0 | 0.00 | 0.81 | 0.81 | 69 | 1003.9 |
| 20260508020108 | 56 | 245 | 3.5 | 6.1 | 0.00 | 0.81 | 0.81 | 70 | 1003.9 |
| 20260508020005 | 56 | 245 | 3.5 | 6.1 | 0.00 | 0.81 | 0.81 | 69 | 1004.1 |
| 20260508015810 | 56 | 242 | 3.5 | 6.1 | 0.00 | 0.81 | 0.81 | 69 | 1003.9 |
| 20260508015704 | 56 | 244 | 3.5 | 7.8 | 0.00 | 0.81 | 0.81 | 69 | 1004.0 |
| 20260508015604 | 56 | 234 | 3.5 | 9.6 | 0.00 | 0.81 | 0.81 | 69 | 1003.9 |
| 20260508015504 | 56 | 237 | 2.6 | 9.6 | 0.00 | 0.81 | 0.81 | 69 | 1004.0 |
| 20260508015403 | 56 | 241 | 3.5 | 9.6 | 0.00 | 0.81 | 0.81 | 69 | 1003.9 |
| 20260508015319 | 56 | 237 | 1.7 | 9.6 | 0.00 | 0.81 | 0.81 | 69 | 1004.0 |
| 20260508015306 | 56 | 239 | 1.7 | 9.6 | 0.00 | 0.81 | 0.81 | 69 | 1004.0 |
| 20260508015203 | 56 | 236 | 3.5 | 9.6 | 0.00 | 0.81 | 0.81 | 68 | 1003.8 |
| 20260508015004 | 56 | 250 | 5.2 | 11.3 | 0.00 | 0.81 | 0.81 | 68 | 1003.9 |
| 20260508014906 | 56 | 244 | 4.3 | 11.3 | 0.00 | 0.81 | 0.81 | 68 | 1003.8 |
| 20260508014805 | 56 | 240 | 4.3 | 11.3 | 0.00 | 0.81 | 0.81 | 68 | 1003.7 |
| 20260508014704 | 56 | 241 | 6.1 | 11.3 | 0.00 | 0.81 | 0.81 | 68 | 1003.8 |
| 20260508014604 | 56 | 239 | 5.2 | 11.3 | 0.00 | 0.81 | 0.81 | 68 | 1003.8 |
| 20260508014504 | 56 | 239 | 6.1 | 11.3 | 0.00 | 0.81 | 0.81 | 68 | 1003.7 |
| 20260508014404 | 56 | 243 | 3.5 | 9.6 | 0.00 | 0.81 | 0.81 | 68 | 1003.7 |
| 20260508014304 | 56 | 248 | 5.2 | 9.6 | 0.00 | 0.81 | 0.81 | 67 | 1003.9 |
| 20260508014206 | 56 | 250 | 5.2 | 9.6 | 0.00 | 0.81 | 0.81 | 67 | 1003.7 |
| 20260508014105 | 57 | 248 | 5.2 | 9.6 | 0.00 | 0.81 | 0.81 | 67 | 1003.9 |
| 20260508014004 | 57 | 241 | 3.5 | 9.6 | 0.00 | 0.81 | 0.81 | 67 | 1003.7 |
| 20260508013904 | 57 | 243 | 3.5 | 9.6 | 0.00 | 0.81 | 0.81 | 67 | 1003.6 |
| 20260508013804 | 57 | 237 | 5.2 | 11.3 | 0.00 | 0.81 | 0.81 | 67 | 1003.7 |
| 20260508013705 | 57 | 234 | 3.5 | 11.3 | 0.00 | 0.81 | 0.81 | 67 | 1003.7 |
| 20260508013605 | 57 | 232 | 3.5 | 11.3 | 0.00 | 0.81 | 0.81 | 67 | 1003.7 |
| 20260508013503 | 57 | 237 | 5.2 | 11.3 | 0.00 | 0.81 | 0.81 | 67 | 1003.7 |
| 20260508013403 | 57 | 243 | 5.2 | 11.3 | 0.00 | 0.81 | 0.81 | 67 | 1003.6 |
| 20260508013304 | 57 | 253 | 7.0 | 11.3 | 0.00 | 0.81 | 0.81 | 67 | 1003.8 |
| 20260508013204 | 57 | 259 | 4.3 | 9.6 | 0.00 | 0.81 | 0.81 | 67 | 1003.6 |
| 20260508013105 | 57 | 261 | 3.5 | 7.0 | 0.00 | 0.81 | 0.81 | 67 | 1003.4 |
| 20260508013017 | 57 | 255 | 3.5 | 7.8 | 0.00 | 0.81 | 0.81 | 67 | 1003.7 |
| 20260508013004 | 57 | 252 | 3.5 | 9.6 | 0.00 | 0.81 | 0.81 | 66 | 1003.5 |
| 20260508012907 | 57 | 240 | 3.5 | 11.3 | 0.00 | 0.81 | 0.81 | 66 | 1003.6 |
| 20260508012705 | 57 | 239 | 3.5 | 12.2 | 0.00 | 0.81 | 0.81 | 66 | 1003.6 |
| 20260508012604 | 57 | 241 | 5.2 | 12.2 | 0.00 | 0.81 | 0.81 | 66 | 1003.7 |
| 20260508012503 | 57 | 248 | 6.1 | 12.2 | 0.00 | 0.81 | 0.81 | 66 | 1003.4 |
| 20260508012413 | 57 | 255 | 7.0 | 12.2 | 0.00 | 0.81 | 0.81 | 66 | 1003.7 |
| 20260508012406 | 57 | 258 | 7.0 | 12.2 | 0.00 | 0.81 | 0.81 | 66 | 1003.7 |
| 20260508012308 | 57 | 255 | 7.0 | 12.2 | 0.00 | 0.81 | 0.81 | 66 | 1003.6 |
| 20260508012005 | 57 | 248 | 6.1 | 9.6 | 0.00 | 0.81 | 0.81 | 66 | 1003.9 |
| 20260508011903 | 57 | 239 | 3.5 | 9.6 | 0.00 | 0.81 | 0.81 | 66 | 1003.7 |
| 20260508011806 | 57 | 238 | 6.1 | 11.3 | 0.00 | 0.81 | 0.81 | 65 | 1003.6 |
| 20260508011704 | 57 | 233 | 3.5 | 11.3 | 0.00 | 0.81 | 0.81 | 65 | 1003.8 |
| 20260508011604 | 57 | 226 | 3.5 | 11.3 | 0.00 | 0.81 | 0.81 | 65 | 1003.8 |
| 20260508011504 | 57 | 221 | 5.2 | 11.3 | 0.00 | 0.81 | 0.81 | 65 | 1003.6 |
| 20260508011408 | 57 | 220 | 5.2 | 11.3 | 0.00 | 0.81 | 0.81 | 65 | 1003.6 |
| 20260508011304 | 57 | 220 | 7.8 | 11.3 | 0.00 | 0.81 | 0.81 | 65 | 1003.9 |
| 20260508011204 | 57 | 230 | 4.3 | 9.6 | 0.00 | 0.81 | 0.81 | 65 | 1003.7 |
| 20260508011103 | 57 | 232 | 5.2 | 9.6 | 0.00 | 0.81 | 0.81 | 65 | 1003.8 |
| 20260508011004 | 57 | 232 | 3.5 | 9.6 | 0.00 | 0.81 | 0.81 | 65 | 1003.7 |
| 20260508010805 | 57 | 226 | 5.2 | 9.6 | 0.00 | 0.81 | 0.81 | 65 | 1003.7 |
| 20260508010703 | 57 | 225 | 4.3 | 9.6 | 0.00 | 0.81 | 0.81 | 65 | 1003.6 |
| 20260508010603 | 57 | 227 | 5.2 | 9.6 | 0.00 | 0.81 | 0.81 | 64 | 1004.1 |
| 20260508010503 | 57 | 230 | 6.1 | 9.6 | 0.00 | 0.81 | 0.81 | 64 | 1003.8 |
| 20260508010404 | 57 | 236 | 4.3 | 7.8 | 0.00 | 0.81 | 0.81 | 65 | 1003.8 |
| 20260508010304 | 57 | 245 | 3.5 | 12.2 | 0.00 | 0.81 | 0.81 | 65 | 1003.8 |
| 20260508010203 | 57 | 248 | 2.6 | 12.2 | 0.00 | 0.81 | 0.81 | 64 | 1003.7 |
| 20260508010107 | 57 | 246 | 4.3 | 12.2 | 0.00 | 0.81 | 0.81 | 64 | 1003.9 |
| 20260508010005 | 58 | 241 | 4.3 | 12.2 | 0.00 | 0.81 | 0.81 | 64 | 1003.8 |
| 20260508005903 | 57 | 240 | 6.1 | 12.2 | 0.00 | 0.81 | 0.81 | 64 | 1003.6 |
| 20260508005804 | 58 | 239 | 7.0 | 12.2 | 0.00 | 0.81 | 0.81 | 64 | 1003.7 |
| 20260508005704 | 57 | 240 | 3.5 | 12.2 | 0.00 | 0.81 | 0.81 | 64 | 1003.8 |
| 20260508005603 | 57 | 232 | 4.3 | 12.2 | 0.00 | 0.81 | 0.81 | 64 | 1003.8 |
| 20260508005505 | 58 | 233 | 3.5 | 12.2 | 0.00 | 0.81 | 0.81 | 64 | 1003.8 |
| 20260508005404 | 58 | 228 | 5.2 | 12.2 | 0.00 | 0.81 | 0.81 | 64 | 1003.8 |
| 20260508005305 | 58 | 223 | 6.1 | 12.2 | 0.00 | 0.81 | 0.81 | 64 | 1003.7 |
| 20260508005204 | 58 | 226 | 7.0 | 12.2 | 0.00 | 0.81 | 0.81 | 63 | 1003.7 |
| 20260508005104 | 58 | 232 | 6.1 | 12.2 | 0.00 | 0.81 | 0.81 | 63 | 1003.7 |
| 20260508005016 | 58 | 238 | 7.0 | 12.2 | 0.00 | 0.81 | 0.81 | 63 | 1003.8 |
| 20260508005005 | 58 | 240 | 7.0 | 12.2 | 0.00 | 0.81 | 0.81 | 63 | 1003.8 |
| 20260508004904 | 58 | 247 | 4.3 | 12.2 | 0.00 | 0.81 | 0.81 | 64 | 1003.8 |
| 20260508004704 | 58 | 232 | 6.1 | 12.2 | 0.00 | 0.81 | 0.81 | 63 | 1004.0 |
| 20260508004604 | 58 | 229 | 7.0 | 13.0 | 0.00 | 0.81 | 0.81 | 63 | 1003.6 |
| 20260508004514 | 58 | 232 | 5.2 | 13.0 | 0.00 | 0.81 | 0.81 | 63 | 1003.7 |
| 20260508004504 | 58 | 231 | 5.2 | 13.0 | 0.00 | 0.81 | 0.81 | 63 | 1003.7 |
| 20260508004404 | 58 | 221 | 4.3 | 13.0 | 0.00 | 0.81 | 0.81 | 63 | 1003.8 |
| 20260508004205 | 58 | 232 | 6.1 | 13.0 | 0.00 | 0.81 | 0.81 | 63 | 1003.6 |
| 20260508004104 | 58 | 228 | 7.0 | 13.0 | 0.00 | 0.81 | 0.81 | 63 | 1003.8 |
| 20260508004004 | 58 | 220 | 5.2 | 11.3 | 0.00 | 0.81 | 0.81 | 63 | 1003.7 |
| 20260508003906 | 58 | 229 | 5.2 | 11.3 | 0.00 | 0.81 | 0.81 | 63 | 1003.7 |
| 20260508003819 | 58 | 234 | 7.0 | 13.9 | 0.00 | 0.81 | 0.81 | 63 | 1003.7 |
| 20260508003805 | 58 | 234 | 6.1 | 13.9 | 0.00 | 0.81 | 0.81 | 63 | 1003.6 |
| 20260508003704 | 58 | 241 | 4.3 | 13.9 | 0.00 | 0.81 | 0.81 | 63 | 1003.8 |
| 20260508003504 | 58 | 243 | 4.3 | 13.9 | 0.00 | 0.81 | 0.81 | 62 | 1003.8 |
| 20260508003404 | 58 | 238 | 8.7 | 13.9 | 0.00 | 0.81 | 0.81 | 62 | 1003.8 |
| 20260508003303 | 58 | 239 | 7.0 | 13.0 | 0.00 | 0.81 | 0.81 | 62 | 1003.6 |
| 20260508003207 | 58 | 245 | 7.0 | 13.0 | 0.00 | 0.81 | 0.81 | 62 | 1003.5 |
| 20260508003104 | 58 | 236 | 7.0 | 13.0 | 0.00 | 0.81 | 0.81 | 62 | 1003.5 |
| 20260508003018 | 58 | 238 | 6.1 | 13.0 | 0.00 | 0.81 | 0.81 | 62 | 1003.9 |
| 20260508003005 | 58 | 240 | 4.3 | 13.0 | 0.00 | 0.81 | 0.81 | 62 | 1003.7 |
| 20260508002904 | 58 | 246 | 7.0 | 13.0 | 0.00 | 0.81 | 0.81 | 62 | 1003.5 |
| 20260508002815 | 58 | 244 | 6.1 | 14.8 | 0.00 | 0.81 | 0.81 | 62 | 1003.5 |
| 20260508002707 | 58 | 245 | 7.0 | 14.8 | 0.00 | 0.81 | 0.81 | 62 | 1003.6 |
| 20260508002617 | 58 | 244 | 7.8 | 14.8 | 0.00 | 0.81 | 0.81 | 61 | 1003.5 |
| 20260508002503 | 58 | 244 | 3.5 | 14.8 | 0.00 | 0.81 | 0.81 | 61 | 1003.5 |
| 20260508002306 | 58 | 232 | 7.0 | 14.8 | 0.00 | 0.81 | 0.81 | 61 | 1003.6 |
| 20260508002205 | 59 | 229 | 6.1 | 14.8 | 0.00 | 0.81 | 0.81 | 61 | 1003.7 |
| 20260508002104 | 59 | 229 | 3.5 | 14.8 | 0.00 | 0.81 | 0.81 | 61 | 1003.8 |
| 20260508002006 | 59 | 221 | 7.0 | 14.8 | 0.00 | 0.81 | 0.81 | 61 | 1003.6 |
| 20260508001904 | 59 | 218 | 7.0 | 14.8 | 0.00 | 0.81 | 0.81 | 61 | 1003.5 |
| 20260508001804 | 59 | 222 | 7.0 | 14.8 | 0.00 | 0.81 | 0.81 | 61 | 1003.7 |
| 20260508001705 | 59 | 214 | 7.0 | 14.8 | 0.00 | 0.81 | 0.81 | 61 | 1003.7 |
| 20260508001603 | 59 | 212 | 6.1 | 14.8 | 0.00 | 0.81 | 0.81 | 60 | 1003.7 |
| 20260508001505 | 59 | 217 | 7.0 | 14.8 | 0.00 | 0.81 | 0.81 | 60 | 1003.8 |
| 20260508001404 | 59 | 230 | 5.2 | 17.4 | 0.00 | 0.81 | 0.81 | 60 | 1003.8 |
| 20260508001303 | 59 | 229 | 5.2 | 17.4 | 0.00 | 0.81 | 0.81 | 60 | 1003.6 |
| 20260508001204 | 59 | 245 | 7.0 | 18.2 | 0.00 | 0.81 | 0.81 | 60 | 1003.7 |
| 20260508001103 | 59 | 252 | 5.2 | 18.2 | 0.00 | 0.81 | 0.81 | 60 | 1003.7 |
| 20260508001004 | 59 | 253 | 8.7 | 18.2 | 0.00 | 0.81 | 0.81 | 60 | 1003.7 |
| 20260508000905 | 59 | 255 | 7.0 | 18.2 | 0.00 | 0.81 | 0.81 | 60 | 1003.8 |
| 20260508000803 | 59 | 256 | 8.7 | 18.2 | 0.00 | 0.81 | 0.81 | 60 | 1003.5 |
| 20260508000705 | 59 | 246 | 11.3 | 18.2 | 0.00 | 0.81 | 0.81 | 60 | 1003.8 |
| 20260508000503 | 59 | 250 | 6.1 | 15.6 | 0.00 | 0.81 | 0.81 | 61 | 1003.6 |
| 20260508000405 | 59 | 251 | 6.1 | 15.6 | 0.00 | 0.81 | 0.81 | 61 | 1003.8 |
| 20260508000305 | 59 | 252 | 7.8 | 15.6 | 0.00 | 0.81 | 0.81 | 61 | 1003.7 |
| 20260508000205 | 59 | 246 | 7.8 | 15.6 | 0.00 | 0.81 | 0.81 | 61 | 1003.7 |
| 20260508000107 | 59 | 235 | 3.5 | 13.0 | 0.00 | 0.81 | 0.81 | 62 | 1003.5 |
| 20260508000005 | 59 | 223 | 6.1 | 14.8 | 0.00 | 0.81 | 0.81 | 61 | 1003.7 |
| 20260507235903 | 59 | 222 | 4.3 | 14.8 | 0.00 | 0.81 | 0.81 | 61 | 1003.9 |
| 20260507235817 | 59 | 223 | 6.1 | 14.8 | 0.00 | 0.81 | 0.81 | 61 | 1003.7 |
| 20260507235804 | 59 | 222 | 7.0 | 14.8 | 0.00 | 0.81 | 0.81 | 61 | 1003.8 |
| 20260507235705 | 59 | 230 | 5.2 | 14.8 | 0.00 | 0.81 | 0.81 | 61 | 1003.7 |
| 20260507235504 | 59 | 241 | 9.6 | 14.8 | 0.00 | 0.81 | 0.81 | 61 | 1003.8 |
| 20260507235404 | 59 | 240 | 7.8 | 13.9 | 0.00 | 0.81 | 0.81 | 61 | 1003.9 |
| 20260507235205 | 59 | 240 | 3.5 | 9.6 | 0.00 | 0.81 | 0.81 | 62 | 1003.7 |
| 20260507235105 | 59 | 240 | 4.3 | 9.6 | 0.00 | 0.81 | 0.81 | 62 | 1003.8 |
| 20260507235004 | 59 | 244 | 6.1 | 9.6 | 0.00 | 0.81 | 0.81 | 62 | 1003.7 |
| 20260507234905 | 59 | 258 | 3.5 | 7.8 | 0.00 | 0.81 | 0.81 | 62 | 1003.8 |
| 20260507234813 | 59 | 263 | 3.5 | 12.2 | 0.00 | 0.81 | 0.81 | 62 | 1003.9 |
| 20260507234804 | 59 | 262 | 3.5 | 12.2 | 0.00 | 0.81 | 0.81 | 62 | 1003.9 |
| 20260507234704 | 59 | 257 | 3.5 | 12.2 | 0.00 | 0.81 | 0.81 | 62 | 1003.9 |
| 20260507234507 | 59 | 243 | 3.5 | 12.2 | 0.00 | 0.81 | 0.81 | 62 | 1003.9 |
| 20260507234404 | 59 | 234 | 3.5 | 12.2 | 0.00 | 0.81 | 0.81 | 62 | 1004.0 |
| 20260507234303 | 59 | 233 | 7.0 | 12.2 | 0.00 | 0.81 | 0.81 | 62 | 1003.8 |
| 20260507234203 | 59 | 234 | 5.2 | 12.2 | 0.00 | 0.81 | 0.81 | 62 | 1004.0 |
| 20260507234105 | 59 | 226 | 7.0 | 12.2 | 0.00 | 0.81 | 0.81 | 62 | 1003.7 |
| 20260507234004 | 59 | 222 | 5.2 | 12.2 | 0.00 | 0.81 | 0.81 | 62 | 1003.6 |
| 20260507233906 | 59 | 222 | 6.1 | 12.2 | 0.00 | 0.81 | 0.81 | 62 | 1003.9 |
| 20260507233803 | 59 | 212 | 7.8 | 12.2 | 0.00 | 0.81 | 0.81 | 62 | 1003.8 |
| 20260507233718 | 59 | 205 | 4.3 | 11.3 | 0.00 | 0.81 | 0.81 | 62 | 1004.1 |
| 20260507233604 | 59 | 219 | 4.3 | 12.2 | 0.00 | 0.81 | 0.81 | 62 | 1003.9 |
| 20260507233407 | 60 | 226 | 3.5 | 12.2 | 0.00 | 0.81 | 0.81 | 62 | 1004.0 |
| 20260507233303 | 60 | 232 | 3.5 | 12.2 | 0.00 | 0.81 | 0.81 | 62 | 1003.8 |
| 20260507233203 | 60 | 230 | 6.1 | 12.2 | 0.00 | 0.81 | 0.81 | 61 | 1003.9 |
| 20260507233104 | 60 | 229 | 7.0 | 12.2 | 0.00 | 0.81 | 0.81 | 61 | 1003.8 |
| 20260507233004 | 60 | 242 | 6.1 | 11.3 | 0.00 | 0.81 | 0.81 | 62 | 1004.1 |
| 20260507232905 | 60 | 246 | 5.2 | 11.3 | 0.00 | 0.81 | 0.81 | 62 | 1003.9 |
| 20260507232804 | 60 | 246 | 5.2 | 11.3 | 0.00 | 0.81 | 0.81 | 62 | 1004.1 |
| 20260507232703 | 60 | 245 | 2.6 | 11.3 | 0.00 | 0.81 | 0.81 | 62 | 1004.2 |
| 20260507232605 | 60 | 237 | 7.0 | 11.3 | 0.00 | 0.81 | 0.81 | 62 | 1004.0 |
| 20260507232504 | 60 | 216 | 6.1 | 9.6 | 0.00 | 0.81 | 0.81 | 62 | 1003.9 |
| 20260507232403 | 60 | 211 | 3.5 | 9.6 | 0.00 | 0.81 | 0.81 | 62 | 1003.8 |
| 20260507232308 | 60 | 210 | 5.2 | 9.6 | 0.00 | 0.81 | 0.81 | 62 | 1003.8 |
| 20260507232203 | 60 | 209 | 4.3 | 12.2 | 0.00 | 0.81 | 0.81 | 62 | 1003.8 |
| 20260507232115 | 60 | 216 | 4.3 | 12.2 | 0.00 | 0.81 | 0.81 | 62 | 1003.7 |
| 20260507232106 | 60 | 218 | 4.3 | 12.2 | 0.00 | 0.81 | 0.81 | 62 | 1003.7 |
| 20260507232014 | 60 | 222 | 6.1 | 12.2 | 0.00 | 0.81 | 0.81 | 62 | 1004.1 |
| 20260507232006 | 60 | 224 | 6.1 | 12.2 | 0.00 | 0.81 | 0.81 | 62 | 1004.1 |
| 20260507231913 | 60 | 225 | 5.2 | 12.2 | 0.00 | 0.81 | 0.81 | 62 | 1003.9 |
| 20260507231816 | 60 | 225 | 5.2 | 12.2 | 0.00 | 0.81 | 0.81 | 62 | 1004.0 |
| 20260507231505 | 60 | 234 | 1.7 | 11.3 | 0.00 | 0.81 | 0.81 | 63 | 1003.9 |
| 20260507231416 | 60 | 238 | 3.5 | 11.3 | 0.00 | 0.81 | 0.81 | 63 | 1004.1 |
| 20260507231404 | 60 | 240 | 3.5 | 11.3 | 0.00 | 0.81 | 0.81 | 63 | 1004.1 |
| 20260507231303 | 60 | 244 | 3.5 | 11.3 | 0.00 | 0.81 | 0.81 | 63 | 1004.1 |
| 20260507231103 | 60 | 231 | 6.1 | 11.3 | 0.00 | 0.81 | 0.81 | 63 | 1003.9 |
| 20260507231004 | 60 | 227 | 4.3 | 9.6 | 0.00 | 0.81 | 0.81 | 64 | 1004.1 |
| 20260507230904 | 60 | 226 | 3.5 | 9.6 | 0.00 | 0.81 | 0.81 | 64 | 1003.9 |
| 20260507230805 | 60 | 227 | 4.3 | 9.6 | 0.00 | 0.81 | 0.81 | 63 | 1004.1 |
| 20260507230707 | 60 | 228 | 5.2 | 9.6 | 0.00 | 0.81 | 0.81 | 63 | 1004.1 |
| 20260507230604 | 60 | 234 | 5.2 | 9.6 | 0.00 | 0.81 | 0.81 | 64 | 1004.3 |
| 20260507230505 | 60 | 232 | 4.3 | 9.6 | 0.00 | 0.81 | 0.81 | 64 | 1003.7 |
| 20260507230405 | 60 | 231 | 4.3 | 9.6 | 0.00 | 0.81 | 0.81 | 64 | 1004.2 |
| 20260507230304 | 60 | 231 | 4.3 | 9.6 | 0.00 | 0.81 | 0.81 | 64 | 1004.1 |
| 20260507230106 | 60 | 233 | 5.2 | 9.6 | 0.00 | 0.81 | 0.81 | 63 | 1003.7 |
| 20260507230006 | 60 | 229 | 5.2 | 9.6 | 0.00 | 0.81 | 0.81 | 63 | 1003.9 |
| 20260507225905 | 60 | 223 | 5.2 | 9.6 | 0.00 | 0.81 | 0.81 | 64 | 1004.0 |
| 20260507225803 | 60 | 218 | 6.1 | 9.6 | 0.00 | 0.81 | 0.81 | 64 | 1004.0 |
| 20260507225705 | 60 | 215 | 5.2 | 9.6 | 0.00 | 0.81 | 0.81 | 64 | 1003.9 |
| 20260507225615 | 60 | 213 | 3.5 | 7.8 | 0.00 | 0.81 | 0.81 | 64 | 1003.8 |
| 20260507225605 | 60 | 214 | 3.5 | 7.8 | 0.00 | 0.81 | 0.81 | 64 | 1003.8 |
| 20260507225505 | 60 | 219 | 4.3 | 7.8 | 0.00 | 0.81 | 0.81 | 64 | 1003.8 |
| 20260507225418 | 60 | 223 | 4.3 | 7.8 | 0.00 | 0.81 | 0.81 | 64 | 1003.7 |
| 20260507225306 | 60 | 225 | 1.7 | 7.0 | 0.00 | 0.81 | 0.81 | 65 | 1003.9 |
| 20260507225104 | 60 | 237 | 3.5 | 7.8 | 0.00 | 0.81 | 0.81 | 64 | 1003.7 |
| 20260507225004 | 60 | 234 | 3.5 | 7.8 | 0.00 | 0.81 | 0.81 | 64 | 1003.7 |
| 20260507224916 | 60 | 235 | 3.5 | 7.8 | 0.00 | 0.81 | 0.81 | 64 | 1003.8 |
| 20260507224903 | 60 | 234 | 3.5 | 7.8 | 0.00 | 0.81 | 0.81 | 64 | 1003.8 |
| 20260507224804 | 60 | 236 | 2.6 | 7.8 | 0.00 | 0.81 | 0.81 | 64 | 1003.7 |
| 20260507224604 | 60 | 233 | 3.5 | 7.8 | 0.00 | 0.81 | 0.81 | 64 | 1003.7 |
| 20260507224504 | 60 | 236 | 3.5 | 7.8 | 0.00 | 0.81 | 0.81 | 64 | 1003.7 |
| 20260507224404 | 60 | 244 | 3.5 | 7.8 | 0.00 | 0.81 | 0.81 | 64 | 1003.7 |
| 20260507224305 | 60 | 242 | 3.5 | 7.8 | 0.00 | 0.81 | 0.81 | 64 | 1003.7 |
| 20260507224205 | 60 | 235 | 3.5 | 7.8 | 0.00 | 0.81 | 0.81 | 64 | 1003.8 |
| 20260507224104 | 60 | 231 | 1.7 | 7.8 | 0.00 | 0.81 | 0.81 | 64 | 1003.6 |
| 20260507224003 | 60 | 233 | 3.5 | 7.8 | 0.00 | 0.81 | 0.81 | 64 | 1003.6 |
| 20260507223904 | 60 | 228 | 3.5 | 7.8 | 0.00 | 0.81 | 0.81 | 64 | 1003.4 |
| 20260507223807 | 60 | 228 | 1.7 | 9.6 | 0.00 | 0.81 | 0.81 | 64 | 1003.6 |
| 20260507223617 | 60 | 236 | 4.3 | 9.6 | 0.00 | 0.81 | 0.81 | 64 | 1003.9 |
| 20260507223603 | 60 | 238 | 4.3 | 9.6 | 0.00 | 0.81 | 0.81 | 64 | 1003.9 |
| 20260507223503 | 60 | 239 | 3.5 | 9.6 | 0.00 | 0.81 | 0.81 | 64 | 1003.5 |
| 20260507223204 | 60 | 244 | 4.3 | 7.0 | 0.00 | 0.81 | 0.81 | 64 | 1003.6 |
| 20260507223103 | 60 | 239 | 3.5 | 7.0 | 0.00 | 0.81 | 0.81 | 64 | 1003.5 |
| 20260507223007 | 60 | 238 | 3.5 | 7.0 | 0.00 | 0.81 | 0.81 | 64 | 1003.5 |
| 20260507222917 | 60 | 241 | 1.7 | 7.0 | 0.00 | 0.81 | 0.81 | 64 | 1003.6 |
| 20260507222905 | 60 | 242 | 1.7 | 7.0 | 0.00 | 0.81 | 0.81 | 64 | 1003.6 |
| 20260507222816 | 60 | 241 | 3.5 | 7.0 | 0.00 | 0.81 | 0.81 | 64 | 1003.6 |
| 20260507222804 | 60 | 240 | 3.5 | 7.0 | 0.00 | 0.81 | 0.81 | 64 | 1003.6 |
| 20260507222618 | 60 | 234 | 3.5 | 7.0 | 0.00 | 0.81 | 0.81 | 64 | 1003.4 |
| 20260507222504 | 60 | 228 | 2.6 | 7.0 | 0.00 | 0.81 | 0.81 | 64 | 1003.6 |
| 20260507222306 | 60 | 224 | 3.5 | 7.0 | 0.00 | 0.81 | 0.81 | 63 | 1003.4 |
| 20260507222204 | 60 | 227 | 3.5 | 7.8 | 0.00 | 0.81 | 0.81 | 64 | 1003.5 |
| 20260507222103 | 60 | 237 | 3.5 | 9.6 | 0.00 | 0.81 | 0.81 | 64 | 1003.5 |
| 20260507222015 | 60 | 238 | 3.5 | 9.6 | 0.00 | 0.81 | 0.81 | 63 | 1003.3 |
| 20260507222004 | 60 | 239 | 3.5 | 9.6 | 0.00 | 0.81 | 0.81 | 63 | 1003.3 |
| 20260507221903 | 60 | 238 | 2.6 | 9.6 | 0.00 | 0.81 | 0.81 | 63 | 1003.3 |
| 20260507221607 | 60 | 243 | 5.2 | 9.6 | 0.00 | 0.81 | 0.81 | 63 | 1003.4 |
| 20260507221503 | 60 | 245 | 5.2 | 9.6 | 0.00 | 0.81 | 0.81 | 63 | 1003.0 |
| 20260507221403 | 60 | 255 | 4.3 | 7.8 | 0.00 | 0.81 | 0.81 | 63 | 1003.3 |
| 20260507221305 | 60 | 264 | 3.5 | 7.0 | 0.00 | 0.81 | 0.81 | 63 | 1003.2 |
| 20260507221204 | 60 | 260 | 3.5 | 7.0 | 0.00 | 0.81 | 0.81 | 63 | 1003.4 |
| 20260507221104 | 60 | 250 | 3.5 | 7.0 | 0.00 | 0.81 | 0.81 | 63 | 1003.4 |
| 20260507221004 | 60 | 245 | 3.5 | 7.0 | 0.00 | 0.81 | 0.81 | 63 | 1003.5 |
| 20260507220914 | 60 | 245 | 3.5 | 7.0 | 0.00 | 0.81 | 0.81 | 63 | 1003.4 |
| 20260507220903 | 60 | 246 | 3.5 | 7.0 | 0.00 | 0.81 | 0.81 | 63 | 1003.4 |
| 20260507220818 | 60 | 241 | 3.5 | 7.8 | 0.00 | 0.81 | 0.81 | 63 | 1003.3 |
| 20260507220805 | 60 | 239 | 3.5 | 7.8 | 0.00 | 0.81 | 0.81 | 63 | 1003.3 |
| 20260507220716 | 60 | 232 | 3.5 | 7.8 | 0.00 | 0.81 | 0.81 | 63 | 1003.3 |
| 20260507220405 | 60 | 234 | 3.5 | 12.2 | 0.00 | 0.81 | 0.81 | 63 | 1003.5 |
| 20260507220305 | 60 | 235 | 5.2 | 12.2 | 0.00 | 0.81 | 0.81 | 63 | 1003.2 |
| 20260507220204 | 60 | 241 | 4.3 | 12.2 | 0.00 | 0.81 | 0.81 | 63 | 1003.1 |
| 20260507220104 | 60 | 239 | 4.3 | 12.2 | 0.00 | 0.81 | 0.81 | 63 | 1003.3 |
| 20260507220005 | 60 | 230 | 4.3 | 12.2 | 0.00 | 0.81 | 0.81 | 63 | 1003.3 |
| 20260507215819 | 60 | 233 | 4.3 | 9.6 | 0.00 | 0.81 | 0.81 | 63 | 1003.3 |
| 20260507215804 | 60 | 234 | 4.3 | 11.3 | 0.00 | 0.81 | 0.81 | 63 | 1003.3 |
| 20260507215704 | 60 | 238 | 3.5 | 11.3 | 0.00 | 0.81 | 0.81 | 63 | 1002.9 |
| 20260507215504 | 60 | 258 | 4.3 | 11.3 | 0.00 | 0.81 | 0.81 | 63 | 1002.9 |
| 20260507215404 | 60 | 256 | 3.5 | 12.2 | 0.00 | 0.81 | 0.81 | 63 | 1002.8 |
| 20260507215307 | 60 | 250 | 7.0 | 12.2 | 0.00 | 0.81 | 0.81 | 62 | 1002.9 |
| 20260507215204 | 60 | 254 | 5.2 | 12.2 | 0.00 | 0.81 | 0.81 | 62 | 1002.8 |
| 20260507215104 | 60 | 249 | 3.5 | 12.2 | 0.00 | 0.81 | 0.81 | 63 | 1002.8 |
| 20260507215017 | 60 | 238 | 5.2 | 12.2 | 0.00 | 0.81 | 0.81 | 62 | 1002.8 |
| 20260507215004 | 60 | 233 | 7.0 | 12.2 | 0.00 | 0.81 | 0.81 | 62 | 1002.8 |
| 20260507214905 | 60 | 235 | 3.5 | 9.6 | 0.00 | 0.81 | 0.81 | 63 | 1002.6 |
| 20260507214704 | 60 | 235 | 3.5 | 9.6 | 0.00 | 0.81 | 0.81 | 63 | 1002.8 |
| 20260507214617 | 60 | 231 | 5.2 | 11.3 | 0.00 | 0.81 | 0.81 | 63 | 1002.8 |
| 20260507214605 | 60 | 232 | 6.1 | 11.3 | 0.00 | 0.81 | 0.81 | 63 | 1002.7 |
| 20260507214504 | 60 | 233 | 4.3 | 11.3 | 0.00 | 0.81 | 0.81 | 63 | 1002.5 |
| 20260507214304 | 60 | 233 | 3.5 | 11.3 | 0.00 | 0.81 | 0.81 | 63 | 1002.6 |
| 20260507214204 | 60 | 225 | 3.5 | 11.3 | 0.00 | 0.81 | 0.81 | 63 | 1002.8 |
| 20260507214104 | 60 | 230 | 2.6 | 9.6 | 0.00 | 0.81 | 0.81 | 63 | 1002.6 |
| 20260507214003 | 60 | 243 | 2.6 | 9.6 | 0.00 | 0.81 | 0.81 | 63 | 1002.8 |
| 20260507213907 | 60 | 255 | 3.5 | 9.6 | 0.00 | 0.81 | 0.81 | 63 | 1002.7 |
| 20260507213816 | 60 | 252 | 3.5 | 9.6 | 0.00 | 0.81 | 0.81 | 63 | 1002.6 |
| 20260507213803 | 60 | 251 | 5.2 | 9.6 | 0.00 | 0.81 | 0.81 | 63 | 1002.6 |
| 20260507213703 | 60 | 260 | 7.0 | 9.6 | 0.00 | 0.81 | 0.81 | 62 | 1002.6 |
| 20260507213618 | 60 | 263 | 4.3 | 9.6 | 0.00 | 0.81 | 0.81 | 63 | 1002.8 |
| 20260507213505 | 60 | 261 | 5.2 | 9.6 | 0.00 | 0.81 | 0.81 | 62 | 1002.7 |
| 20260507213205 | 60 | 246 | 4.3 | 7.0 | 0.00 | 0.81 | 0.81 | 63 | 1002.5 |
| 20260507213104 | 60 | 238 | 1.7 | 9.6 | 0.00 | 0.81 | 0.81 | 63 | 1002.6 |
| 20260507213005 | 60 | 230 | 3.5 | 9.6 | 0.00 | 0.81 | 0.81 | 63 | 1002.3 |
| 20260507212905 | 60 | 226 | 3.5 | 9.6 | 0.00 | 0.81 | 0.81 | 62 | 1002.3 |
| 20260507212804 | 60 | 226 | 3.5 | 9.6 | 0.00 | 0.81 | 0.81 | 62 | 1002.5 |
| 20260507212704 | 60 | 224 | 3.5 | 9.6 | 0.00 | 0.81 | 0.81 | 62 | 1002.3 |
| 20260507212603 | 60 | 231 | 3.5 | 9.6 | 0.00 | 0.81 | 0.81 | 62 | 1002.5 |
| 20260507212505 | 60 | 238 | 2.6 | 13.0 | 0.00 | 0.81 | 0.81 | 62 | 1002.2 |
| 20260507212403 | 60 | 247 | 4.3 | 13.0 | 0.00 | 0.81 | 0.81 | 62 | 1002.4 |
| 20260507212306 | 60 | 247 | 3.5 | 13.0 | 0.00 | 0.81 | 0.81 | 62 | 1002.3 |
| 20260507212204 | 61 | 252 | 3.5 | 13.0 | 0.00 | 0.81 | 0.81 | 62 | 1002.4 |
| 20260507212104 | 60 | 245 | 4.3 | 13.0 | 0.00 | 0.81 | 0.81 | 62 | 1002.1 |
| 20260507212005 | 60 | 255 | 7.0 | 13.0 | 0.00 | 0.81 | 0.81 | 61 | 1002.4 |
| 20260507211905 | 60 | 245 | 4.3 | 13.0 | 0.00 | 0.81 | 0.81 | 62 | 1002.2 |
| 20260507211805 | 61 | 241 | 3.5 | 13.0 | 0.00 | 0.81 | 0.81 | 62 | 1002.3 |
| 20260507211705 | 61 | 239 | 6.1 | 13.0 | 0.00 | 0.81 | 0.81 | 61 | 1002.2 |
| 20260507211604 | 61 | 242 | 4.3 | 13.0 | 0.00 | 0.81 | 0.81 | 61 | 1001.9 |
| 20260507211506 | 61 | 237 | 7.0 | 13.0 | 0.00 | 0.81 | 0.81 | 61 | 1002.5 |
| 20260507211404 | 61 | 239 | 7.0 | 12.2 | 0.00 | 0.81 | 0.81 | 61 | 1002.2 |
| 20260507211304 | 61 | 239 | 4.3 | 12.2 | 0.00 | 0.81 | 0.81 | 61 | 1002.3 |
| 20260507211205 | 61 | 231 | 6.1 | 12.2 | 0.00 | 0.81 | 0.81 | 61 | 1002.3 |
| 20260507211104 | 61 | 232 | 6.1 | 13.0 | 0.00 | 0.81 | 0.81 | 61 | 1002.3 |
| 20260507211004 | 61 | 227 | 3.5 | 13.0 | 0.00 | 0.81 | 0.81 | 61 | 1002.2 |
| 20260507210905 | 61 | 227 | 3.5 | 13.0 | 0.00 | 0.81 | 0.81 | 61 | 1002.5 |
| 20260507210803 | 61 | 223 | 5.2 | 13.0 | 0.00 | 0.81 | 0.81 | 61 | 1002.3 |
| 20260507210707 | 61 | 231 | 6.1 | 13.0 | 0.00 | 0.81 | 0.81 | 61 | 1002.2 |
| 20260507210604 | 61 | 236 | 3.5 | 11.3 | 0.00 | 0.81 | 0.81 | 61 | 1002.4 |
| 20260507210504 | 61 | 237 | 2.6 | 11.3 | 0.00 | 0.81 | 0.81 | 61 | 1002.1 |
| 20260507210404 | 61 | 234 | 5.2 | 12.2 | 0.00 | 0.81 | 0.81 | 61 | 1001.9 |
| 20260507210304 | 61 | 241 | 3.5 | 13.0 | 0.00 | 0.81 | 0.81 | 61 | 1002.1 |
| 20260507210206 | 61 | 238 | 3.5 | 13.0 | 0.00 | 0.81 | 0.81 | 61 | 1002.1 |
| 20260507210104 | 61 | 231 | 4.3 | 13.0 | 0.00 | 0.81 | 0.81 | 61 | 1002.0 |
| 20260507210005 | 61 | 229 | 5.2 | 13.0 | 0.00 | 0.81 | 0.81 | 61 | 1002.1 |
| 20260507205905 | 61 | 229 | 7.8 | 13.0 | 0.00 | 0.81 | 0.81 | 61 | 1002.0 |
| 20260507205805 | 61 | 225 | 7.0 | 12.2 | 0.00 | 0.81 | 0.81 | 61 | 1002.3 |
| 20260507205704 | 61 | 225 | 7.0 | 12.2 | 0.00 | 0.81 | 0.81 | 61 | 1001.9 |
| 20260507205604 | 61 | 225 | 5.2 | 14.8 | 0.00 | 0.81 | 0.81 | 61 | 1002.0 |
| 20260507205404 | 61 | 225 | 7.8 | 14.8 | 0.00 | 0.81 | 0.81 | 61 | 1001.9 |
| 20260507205306 | 61 | 226 | 5.2 | 14.8 | 0.00 | 0.81 | 0.81 | 61 | 1002.1 |
| 20260507205205 | 61 | 232 | 5.2 | 14.8 | 0.00 | 0.81 | 0.81 | 61 | 1002.2 |
| 20260507205104 | 61 | 232 | 7.0 | 14.8 | 0.00 | 0.81 | 0.81 | 60 | 1002.0 |
| 20260507205004 | 61 | 234 | 6.1 | 14.8 | 0.00 | 0.81 | 0.81 | 60 | 1002.1 |
| 20260507204903 | 61 | 229 | 7.8 | 14.8 | 0.00 | 0.81 | 0.81 | 60 | 1001.8 |
| 20260507204805 | 61 | 227 | 3.5 | 14.8 | 0.00 | 0.81 | 0.81 | 60 | 1002.0 |
| 20260507204703 | 61 | 224 | 5.2 | 14.8 | 0.00 | 0.81 | 0.81 | 60 | 1002.2 |
| 20260507204603 | 61 | 222 | 6.1 | 14.8 | 0.00 | 0.81 | 0.81 | 60 | 1002.0 |
| 20260507204504 | 61 | 227 | 5.2 | 14.8 | 0.00 | 0.81 | 0.81 | 60 | 1002.0 |
| 20260507204403 | 61 | 231 | 6.1 | 13.0 | 0.00 | 0.81 | 0.81 | 60 | 1002.2 |
| 20260507204308 | 61 | 226 | 5.2 | 13.0 | 0.00 | 0.81 | 0.81 | 60 | 1002.2 |
| 20260507204203 | 61 | 227 | 7.8 | 13.0 | 0.00 | 0.81 | 0.81 | 60 | 1002.1 |
| 20260507204104 | 61 | 232 | 9.6 | 13.0 | 0.00 | 0.81 | 0.81 | 60 | 1002.5 |
| 20260507204005 | 61 | 231 | 4.3 | 13.0 | 0.00 | 0.81 | 0.81 | 60 | 1002.4 |
| 20260507203904 | 61 | 228 | 4.3 | 13.0 | 0.00 | 0.81 | 0.81 | 60 | 1002.5 |
| 20260507203803 | 61 | 236 | 5.2 | 13.0 | 0.00 | 0.81 | 0.81 | 60 | 1002.2 |
| 20260507203703 | 61 | 237 | 5.2 | 13.0 | 0.00 | 0.81 | 0.81 | 60 | 1002.2 |
| 20260507203603 | 61 | 237 | 7.0 | 13.0 | 0.00 | 0.81 | 0.81 | 60 | 1002.2 |
| 20260507203505 | 61 | 236 | 7.0 | 13.0 | 0.00 | 0.81 | 0.81 | 60 | 1002.2 |
| 20260507203415 | 61 | 243 | 7.0 | 13.0 | 0.00 | 0.81 | 0.81 | 60 | 1002.2 |
| 20260507203404 | 61 | 243 | 7.8 | 13.0 | 0.00 | 0.81 | 0.81 | 60 | 1002.4 |
| 20260507203303 | 61 | 239 | 7.0 | 12.2 | 0.00 | 0.81 | 0.81 | 60 | 1002.2 |
| 20260507203104 | 61 | 248 | 5.2 | 12.2 | 0.00 | 0.81 | 0.81 | 60 | 1002.3 |
| 20260507203015 | 61 | 246 | 5.2 | 12.2 | 0.00 | 0.81 | 0.81 | 60 | 1002.0 |
| 20260507203007 | 61 | 247 | 7.0 | 12.2 | 0.00 | 0.81 | 0.81 | 60 | 1002.2 |
| 20260507202904 | 61 | 244 | 6.1 | 12.2 | 0.00 | 0.81 | 0.81 | 60 | 1002.2 |
| 20260507202817 | 61 | 244 | 7.0 | 12.2 | 0.00 | 0.81 | 0.81 | 59 | 1002.3 |
| 20260507202704 | 62 | 242 | 5.2 | 12.2 | 0.00 | 0.81 | 0.81 | 59 | 1002.3 |
| 20260507202504 | 62 | 227 | 4.3 | 12.2 | 0.00 | 0.81 | 0.81 | 60 | 1002.3 |
| 20260507202406 | 61 | 222 | 7.8 | 12.2 | 0.00 | 0.81 | 0.81 | 59 | 1002.2 |
| 20260507202320 | 62 | 226 | 4.3 | 14.8 | 0.00 | 0.81 | 0.81 | 60 | 1002.5 |
| 20260507202306 | 62 | 228 | 4.3 | 14.8 | 0.00 | 0.81 | 0.81 | 60 | 1002.5 |
| 20260507202205 | 62 | 228 | 6.1 | 14.8 | 0.00 | 0.81 | 0.81 | 59 | 1002.3 |
| 20260507202004 | 62 | 237 | 5.2 | 14.8 | 0.00 | 0.81 | 0.81 | 59 | 1002.4 |
| 20260507201904 | 62 | 244 | 6.1 | 14.8 | 0.00 | 0.81 | 0.81 | 59 | 1002.4 |
| 20260507201717 | 62 | 242 | 6.1 | 13.0 | 0.00 | 0.81 | 0.81 | 59 | 1002.5 |
| 20260507201705 | 62 | 239 | 6.1 | 13.0 | 0.00 | 0.81 | 0.81 | 59 | 1002.5 |
| 20260507201604 | 62 | 235 | 4.3 | 13.0 | 0.00 | 0.81 | 0.81 | 59 | 1002.3 |
| 20260507201403 | 62 | 215 | 7.0 | 17.4 | 0.00 | 0.81 | 0.81 | 59 | 1002.2 |
| 20260507201305 | 62 | 212 | 5.2 | 17.4 | 0.00 | 0.81 | 0.81 | 58 | 1002.1 |
| 20260507201205 | 62 | 210 | 6.1 | 17.4 | 0.00 | 0.81 | 0.81 | 58 | 1002.2 |
| 20260507201104 | 62 | 211 | 5.2 | 17.4 | 0.00 | 0.81 | 0.81 | 58 | 1002.4 |
| 20260507201017 | 62 | 216 | 8.7 | 17.4 | 0.00 | 0.81 | 0.81 | 58 | 1002.0 |
| 20260507201004 | 62 | 216 | 7.0 | 14.8 | 0.00 | 0.81 | 0.81 | 58 | 1002.4 |
| 20260507200706 | 62 | 233 | 7.0 | 14.8 | 0.00 | 0.81 | 0.81 | 59 | 1002.4 |
| 20260507200603 | 62 | 221 | 5.2 | 14.8 | 0.00 | 0.81 | 0.81 | 58 | 1002.2 |
| 20260507200404 | 62 | 229 | 7.0 | 14.8 | 0.00 | 0.81 | 0.81 | 58 | 1002.0 |
| 20260507200304 | 62 | 227 | 4.3 | 17.4 | 0.00 | 0.81 | 0.81 | 59 | 1001.9 |
| 20260507200216 | 62 | 218 | 4.3 | 17.4 | 0.00 | 0.81 | 0.81 | 58 | 1002.1 |
| 20260507200205 | 62 | 218 | 8.7 | 17.4 | 0.00 | 0.81 | 0.81 | 58 | 1002.3 |
| 20260507200104 | 62 | 234 | 8.7 | 17.4 | 0.00 | 0.81 | 0.81 | 58 | 1002.0 |
| 20260507195903 | 62 | 232 | 9.6 | 19.1 | 0.00 | 0.81 | 0.81 | 58 | 1002.2 |
| 20260507195803 | 62 | 232 | 7.0 | 19.1 | 0.00 | 0.81 | 0.81 | 57 | 1002.3 |
| 20260507195704 | 62 | 245 | 5.2 | 20.0 | 0.00 | 0.81 | 0.81 | 58 | 1002.5 |
| 20260507195604 | 62 | 245 | 7.8 | 20.0 | 0.00 | 0.81 | 0.81 | 57 | 1002.4 |
| 20260507195505 | 62 | 247 | 7.0 | 20.0 | 0.00 | 0.81 | 0.81 | 57 | 1002.3 |
| 20260507195408 | 62 | 253 | 12.2 | 20.0 | 0.00 | 0.81 | 0.81 | 57 | 1002.5 |